GFSSW_sfc_wetblb_000.txt.gz
Wetbulb
57.89 57.99 58.27 58.34 58.23 58.11 58.16 58.53 58.53 58.88 59.11 59.54 59.74 59.76 59.86 59.87 59.62 59.46 55.25 59.68 61.18 66.42 66.29 60.38 61.27 58.39 57.42 55.61 57.02 53.56 43.95 39.86 40.60 42.81 42.85 44.80 44.19 48.67 50.80 50.08 51.39 51.87 50.70 51.37 52.36
56.89 57.13 57.61 57.81 57.84 57.61 57.53 57.81 58.23 58.58 58.90 59.11 59.15 59.38 59.45 59.55 56.88 55.10 62.13 66.07 67.02 67.70 61.10 58.01 56.15 56.54 52.91 53.40 54.56 48.79 41.53 43.57 46.47 45.72 43.79 45.76 46.86 48.27 48.95 49.48 49.53 50.88 51.85 52.81 52.30
56.25 56.67 56.85 56.86 56.97 57.14 56.99 57.38 57.75 58.28 58.73 58.85 58.64 58.93 59.25 58.90 55.17 55.57 66.72 66.38 67.72 67.24 60.08 59.18 57.13 55.63 51.44 52.04 52.30 49.89 45.11 46.73 47.21 47.37 47.14 47.05 46.78 49.61 48.67 46.06 48.47 48.53 49.12 50.35 50.30
55.96 56.26 56.34 55.92 55.99 56.37 56.53 56.86 57.27 57.32 58.29 58.39 58.37 58.50 59.36 57.59 46.24 57.28 69.20 67.83 68.57 64.72 59.06 56.33 54.28 49.29 47.27 47.67 51.99 47.54 48.32 48.61 48.03 48.54 47.14 46.67 48.63 48.15 49.00 48.25 51.80 51.85 50.57 49.91 49.54
54.72 55.33 55.37 54.99 55.06 55.45 55.69 56.20 56.47 56.86 57.17 57.59 57.98 58.56 57.53 52.27 52.01 61.66 69.29 69.26 65.46 60.99 57.22 55.05 52.38 50.47 48.04 49.50 49.13 46.32 48.08 49.33 49.07 47.65 47.40 49.01 47.24 48.04 47.79 51.09 52.30 51.73 50.70 49.24 48.98
54.03 54.12 54.30 53.94 54.13 54.96 55.22 55.28 55.40 55.62 56.12 57.13 58.04 58.82 53.88 48.23 57.96 63.17 64.63 63.75 61.35 58.48 57.34 55.46 53.93 54.27 51.23 49.11 47.22 48.67 48.32 48.13 47.49 46.77 46.93 45.66 47.07 47.79 49.15 52.25 51.64 50.03 48.58 48.84 49.54
54.50 53.84 53.60 53.42 53.78 54.49 54.97 54.66 54.40 55.06 56.06 56.88 58.36 58.05 54.32 51.41 58.66 62.66 62.63 59.62 59.53 59.12 56.43 57.69 56.99 54.06 52.37 47.81 49.71 48.79 44.98 45.86 46.47 46.89 45.48 46.71 45.26 45.58 50.44 51.09 50.44 48.95 48.81 49.29 49.80
54.11 53.82 53.43 53.11 53.63 53.88 54.76 54.56 54.15 55.20 56.76 58.32 59.14 56.20 50.60 58.24 58.72 59.78 59.45 59.02 59.81 59.63 58.49 58.15 56.03 51.95 49.89 50.20 49.30 46.17 43.75 39.33 44.58 46.78 47.12 45.95 40.15 47.42 49.92 49.30 48.71 48.67 48.93 49.13 49.31
53.94 53.45 53.37 52.83 53.09 53.38 53.76 53.37 54.63 56.32 58.26 59.60 54.83 53.59 50.09 59.38 56.59 58.68 59.84 57.69 58.30 58.84 58.15 59.09 54.49 50.79 49.83 45.60 42.24 43.24 38.00 39.58 42.92 47.32 46.65 43.98 40.88 48.04 49.18 48.91 48.44 47.54 47.79 48.37 48.57
53.35 52.91 52.97 52.62 52.44 52.89 52.48 52.52 53.87 57.56 58.25 59.79 58.93 48.97 50.40 51.53 57.07 58.82 59.01 59.12 56.88 55.92 55.31 53.51 49.30 46.51 44.29 41.79 37.29 39.80 39.39 42.08 41.89 44.68 45.73 41.83 41.47 46.58 48.12 48.75 48.55 46.57 47.14 47.84 48.49
52.40 52.43 52.41 52.33 52.29 52.00 49.32 47.50 48.99 51.00 52.88 48.56 48.72 51.41 54.09 54.78 57.98 57.21 58.98 56.84 56.63 53.52 48.63 50.66 44.96 42.00 43.91 44.69 45.89 45.78 43.93 42.52 44.45 46.37 44.74 42.75 41.90 45.01 47.03 48.20 46.57 45.46 45.90 46.52 47.53
52.38 51.85 51.68 51.83 51.71 51.77 47.51 44.70 49.00 49.63 44.46 52.70 53.63 52.32 54.48 55.98 52.96 55.56 58.32 53.29 51.57 46.93 49.11 47.11 42.99 47.48 48.41 47.62 46.09 45.27 43.07 42.55 44.87 46.37 43.77 42.62 42.62 44.97 47.03 48.06 48.02 46.16 45.66 46.06 46.62
52.42 51.87 51.43 51.62 51.36 47.98 46.81 50.18 53.40 51.79 44.31 49.69 52.39 52.04 53.06 52.78 50.82 51.72 55.65 53.04 49.83 47.03 46.66 44.02 46.92 50.59 48.64 46.13 44.47 43.60 42.63 42.83 42.97 45.51 44.70 43.02 40.65 43.92 47.08 48.33 49.82 47.34 47.37 46.85 46.73
52.54 52.07 51.25 51.17 44.78 42.92 45.71 49.96 50.41 51.02 39.68 44.98 48.91 51.53 53.07 52.49 49.06 55.83 57.13 53.40 49.74 47.11 47.21 45.77 49.46 48.56 46.91 45.30 45.16 40.38 46.07 46.37 45.53 41.59 36.22 43.44 32.47 41.09 44.48 45.61 47.88 46.92 45.56 45.51 46.92
52.52 51.68 51.23 50.19 42.02 39.45 47.33 47.52 49.95 49.76 26.54 46.26 48.19 54.83 53.05 50.01 50.46 51.35 56.73 53.05 48.38 47.87 47.49 45.83 46.74 45.95 45.54 46.35 46.85 43.17 46.63 44.83 45.24 40.61 37.91 39.89 34.06 39.97 44.30 43.48 46.24 45.84 45.95 45.90 46.97
52.56 51.71 51.13 45.69 43.27 43.50 46.46 46.64 48.50 38.14 28.81 43.40 47.65 47.81 47.59 49.89 50.48 51.29 52.36 54.28 52.84 48.66 48.16 47.90 50.86 49.13 48.36 48.12 47.24 47.56 44.81 44.29 41.77 38.44 31.81 38.52 37.13 36.59 40.64 45.01 46.56 47.01 46.87 47.24 47.23
52.48 51.75 49.34 47.65 40.59 46.08 46.49 46.05 36.73 31.12 44.17 41.47 42.89 46.24 46.34 45.95 47.64 48.41 47.63 47.43 45.12 40.95 42.08 46.14 46.94 49.57 47.85 43.67 45.83 44.86 39.67 32.94 29.91 29.59 29.86 40.92 37.63 40.67 45.17 47.16 49.45 47.16 46.83 47.37 48.41
52.03 51.73 49.50 48.38 45.49 46.70 42.61 40.58 30.40 38.64 40.41 46.46 45.09 44.72 42.93 45.88 45.70 47.14 45.71 44.69 47.01 44.85 41.91 40.44 38.90 46.66 49.14 44.59 42.20 41.42 40.62 34.05 28.11 28.26 35.23 43.77 36.97 40.58 49.82 49.93 51.44 50.64 48.38 48.00 46.70
51.08 45.58 46.20 46.49 47.82 44.55 37.99 34.78 35.23 39.14 43.19 43.04 43.81 41.27 41.03 44.62 45.14 45.00 44.55 44.10 45.22 45.92 42.21 39.54 41.02 48.73 48.82 47.98 46.27 41.54 39.04 43.07 37.27 38.20 34.71 39.25 45.74 49.21 50.41 49.63 50.21 48.24 47.23 46.71 46.77
45.52 41.36 41.65 46.50 47.34 40.82 34.58 37.74 39.29 45.15 45.98 44.39 38.45 41.77 39.28 41.85 42.14 42.54 43.62 46.56 46.01 48.07 48.19 44.06 39.70 46.47 49.11 50.81 49.82 44.24 46.04 38.55 35.82 29.22 28.99 35.91 43.16 40.91 46.35 47.12 48.14 46.57 46.45 46.61 47.07
44.56 38.47 43.34 47.33 45.57 35.81 31.23 37.48 41.86 46.68 46.07 43.27 40.85 39.86 41.01 40.59 41.70 41.97 42.82 46.57 47.87 47.56 49.31 47.16 41.86 42.52 48.52 46.36 43.57 45.07 42.97 43.43 41.38 38.89 30.91 28.63 38.22 48.22 49.07 49.39 47.32 47.07 47.55 46.92 47.73
41.64 34.34 43.32 47.14 33.89 33.35 31.69 38.76 43.50 43.85 45.72 44.47 44.08 43.05 41.50 42.28 41.48 42.04 42.69 45.13 49.04 48.91 44.98 46.27 42.33 39.57 44.99 49.52 51.29 49.86 47.12 45.69 39.24 37.98 39.38 39.03 37.78 51.35 51.00 50.44 50.33 48.38 48.60 48.14 49.35
38.81 36.70 43.13 44.89 29.31 29.23 34.22 36.96 41.39 42.72 42.90 42.41 41.49 43.36 44.35 41.28 38.72 43.05 45.20 49.41 49.69 48.40 46.39 47.04 40.44 37.40 39.27 45.06 47.85 44.69 47.66 48.34 46.40 44.17 38.76 36.26 38.12 50.95 52.16 51.47 51.01 48.65 48.85 48.86 49.04
40.35 33.83 36.45 41.70 39.01 32.75 31.18 32.52 34.99 42.16 41.65 43.37 42.39 43.36 40.79 39.61 41.65 41.11 43.63 49.00 50.70 49.72 53.58 51.57 41.48 42.41 38.49 41.49 45.25 43.55 46.30 47.97 45.84 39.77 40.40 41.06 44.33 47.09 50.11 50.19 51.61 49.50 49.16 49.00 49.18
41.24 36.63 36.51 33.26 34.89 35.83 33.75 34.46 32.99 33.71 41.21 42.37 39.93 41.03 39.72 37.01 39.62 39.98 42.87 45.50 48.95 53.52 49.83 47.63 41.46 43.10 45.41 46.69 47.31 45.80 46.08 46.49 44.99 45.45 41.60 43.93 44.90 46.38 50.09 52.26 53.25 51.74 50.14 49.06 48.54
35.07 37.63 36.10 37.25 37.44 35.82 36.13 33.92 34.63 36.84 36.33 36.95 37.33 40.18 40.80 38.31 40.20 39.06 43.34 44.52 45.42 48.84 49.41 48.71 40.57 44.83 44.68 47.38 47.14 45.24 46.80 47.18 47.11 47.12 45.84 46.02 44.91 50.07 52.53 53.75 53.87 52.09 50.98 49.68 49.28
40.53 43.36 40.13 35.40 35.74 35.42 34.19 35.24 36.91 38.76 39.69 40.94 40.13 40.38 40.17 42.28 45.14 45.64 45.10 47.12 48.88 48.23 48.08 45.14 44.22 39.59 39.54 45.67 44.47 40.22 45.30 46.13 47.48 47.90 47.03 42.96 47.14 51.12 50.63 51.71 52.01 51.91 52.11 51.11 50.66

GFSSW_sfc_wetblb_003.txt.gz
Wetbulb
57.38 57.40 57.43 57.55 57.96 57.92 57.42 57.64 58.18 58.46 58.81 59.28 59.46 59.35 59.36 59.64 59.12 57.30 53.42 57.99 59.95 66.32 65.52 61.38 59.25 57.32 56.05 53.00 55.10 51.36 44.53 40.51 41.36 41.06 42.42 43.82 42.97 46.30 49.33 48.71 49.60 50.02 49.01 49.97 51.17
56.69 56.84 57.02 57.01 57.14 57.16 57.05 56.81 57.12 57.94 58.58 58.98 59.03 58.98 58.98 59.34 55.59 53.20 61.63 65.39 66.44 68.00 58.91 56.04 53.90 54.92 51.04 50.96 52.26 47.91 41.38 42.59 44.57 43.92 42.90 44.15 45.01 47.16 47.53 48.00 47.67 47.76 50.54 51.22 50.95
55.65 56.04 56.32 56.26 56.01 56.14 56.22 56.33 56.61 57.27 58.05 58.47 58.46 58.51 58.67 58.34 53.04 54.64 66.15 65.64 67.28 67.19 58.57 57.91 55.05 53.52 48.52 49.20 49.70 48.02 46.02 46.48 45.72 45.85 45.21 44.97 45.49 48.66 46.99 44.21 47.18 46.17 47.73 49.25 49.21
54.87 55.10 55.30 55.44 55.23 55.42 55.37 55.40 55.93 56.36 56.76 57.52 57.78 58.19 58.70 56.44 44.42 53.57 69.56 67.55 67.77 64.17 57.11 54.95 52.79 48.43 45.55 46.17 49.22 45.97 50.12 48.43 47.38 47.16 46.00 45.31 47.50 47.49 47.20 47.53 50.73 49.56 49.24 48.84 48.32
54.44 54.35 54.31 54.25 54.55 55.02 55.31 55.18 55.41 55.81 55.91 56.18 56.72 57.63 56.28 50.40 50.81 60.30 69.02 69.33 65.63 60.65 57.15 54.16 52.00 50.67 47.02 48.53 49.42 45.26 47.02 48.08 48.29 46.93 46.13 47.43 46.05 46.56 46.96 49.95 50.69 49.67 49.61 48.43 47.96
54.39 54.29 53.99 53.78 53.93 54.46 54.78 54.92 54.90 55.26 55.70 55.95 56.78 57.90 52.26 46.82 56.78 58.37 63.38 62.82 61.16 57.64 56.10 54.90 53.16 53.60 50.57 49.93 47.06 48.71 47.72 47.43 46.20 46.01 45.75 45.54 45.31 47.11 47.62 50.53 49.12 48.59 47.60 47.90 48.49
54.32 54.12 53.81 53.59 53.54 53.80 54.45 54.55 54.10 54.53 55.11 56.31 57.35 56.69 52.21 48.21 56.53 60.30 61.23 58.92 59.02 58.65 55.62 56.02 55.41 53.65 52.10 48.43 50.39 48.66 45.22 46.46 45.18 45.21 45.14 45.98 43.43 44.21 48.73 49.68 47.47 47.22 47.17 48.04 48.45
54.12 54.06 53.42 52.93 52.95 53.29 53.80 54.02 53.92 54.59 55.37 57.16 58.72 54.91 47.28 55.36 56.53 54.35 58.24 57.79 58.34 59.25 57.44 56.20 56.58 52.97 50.30 50.39 48.78 45.83 43.68 39.38 44.55 46.15 46.03 45.22 39.84 45.64 48.93 48.27 46.54 46.91 47.58 47.98 48.19
53.55 53.27 52.99 52.45 52.42 52.46 52.99 52.94 54.01 54.95 57.09 60.14 54.12 51.70 46.95 57.31 55.00 56.38 57.75 56.12 56.80 57.24 57.28 58.38 53.91 50.29 49.52 45.02 42.39 43.28 39.24 40.25 43.11 46.11 45.16 43.32 41.06 45.82 48.36 47.79 46.14 46.00 46.32 47.22 47.48
53.20 52.80 52.80 52.05 52.20 52.30 52.25 52.36 53.12 54.71 58.82 58.04 57.32 46.22 47.37 48.32 55.36 56.81 58.11 57.91 55.24 54.49 53.83 52.31 48.44 46.22 43.73 42.53 37.55 38.92 39.77 41.16 41.26 44.16 43.98 41.51 41.87 44.70 47.30 46.87 45.78 45.55 45.68 46.65 47.30
52.71 52.82 52.57 52.67 51.97 51.89 49.29 45.68 46.07 49.48 51.68 46.75 46.49 47.55 51.71 53.81 54.67 55.03 57.06 55.82 55.47 51.78 46.67 48.52 43.88 41.11 43.94 44.88 45.15 44.46 42.76 41.99 44.12 46.02 43.90 42.35 42.33 44.06 46.59 45.42 44.77 44.45 44.62 45.59 46.81
52.44 52.29 52.11 52.40 51.89 51.83 46.63 42.04 46.05 45.70 41.74 49.69 51.71 50.86 52.91 53.24 49.15 53.31 57.35 51.80 50.16 45.73 47.33 44.71 41.12 46.41 47.47 46.58 44.87 43.28 41.34 40.62 43.46 45.73 43.23 42.48 42.13 43.44 45.69 46.15 45.08 44.49 44.41 45.19 45.60
53.09 52.63 51.92 52.05 51.69 46.84 44.78 47.05 48.12 47.73 42.09 47.67 50.41 50.48 50.93 52.15 48.89 49.44 55.05 52.49 48.99 46.26 45.39 43.73 46.56 49.11 46.91 45.13 43.50 42.64 40.63 41.00 41.39 44.23 43.05 40.74 39.08 41.97 45.02 46.54 46.62 45.37 45.63 45.64 45.82
53.11 52.70 52.25 52.00 43.64 41.00 42.01 46.37 45.88 46.07 38.10 42.36 46.91 49.68 51.14 51.13 48.06 53.48 54.75 52.39 48.36 46.96 45.65 45.20 47.87 47.55 45.21 44.24 44.26 39.43 44.94 44.43 43.77 40.07 34.80 41.70 31.15 39.09 42.29 43.99 45.55 44.63 43.89 44.50 45.55
53.03 52.32 52.08 50.86 42.35 39.71 43.68 45.96 46.93 45.83 25.53 43.90 46.72 53.08 50.84 48.07 49.18 50.04 54.23 51.48 47.26 46.59 46.17 45.05 45.08 44.62 44.09 45.31 46.27 43.46 46.71 43.94 42.96 39.21 35.68 37.92 32.71 38.27 41.84 41.10 44.17 43.72 44.53 44.04 45.32
52.91 52.60 52.04 46.22 42.12 43.86 46.01 46.06 44.78 36.31 26.93 41.08 46.49 46.21 45.43 47.53 48.29 49.45 50.47 52.53 52.01 46.96 46.38 47.03 49.03 47.42 47.22 48.25 47.58 48.46 42.55 42.03 39.31 36.36 29.90 36.71 35.37 35.02 39.57 42.77 44.64 44.76 45.47 45.28 45.28
52.97 52.36 50.57 47.10 39.65 45.04 45.95 43.43 35.43 29.68 42.03 40.32 41.28 45.01 45.14 43.84 45.71 47.18 45.92 44.61 43.78 39.86 40.19 44.28 44.95 47.16 48.33 43.82 44.38 42.17 37.02 30.73 28.60 28.84 29.26 38.87 35.93 37.84 43.63 45.85 47.30 46.68 45.59 45.60 46.22
52.45 51.90 49.98 48.45 45.20 45.38 42.01 38.58 29.27 37.39 38.57 44.19 42.43 43.60 42.40 44.13 44.19 45.63 44.58 42.43 44.71 44.22 40.62 38.76 38.14 44.98 47.53 44.78 42.62 39.94 39.04 31.78 26.63 26.85 33.79 40.26 35.18 40.83 46.41 49.85 48.46 49.91 47.45 46.30 45.28
51.15 48.03 46.95 46.56 48.45 44.67 36.64 32.88 35.05 37.52 42.25 41.99 42.38 39.42 39.20 43.71 43.56 43.96 43.63 43.67 44.45 45.12 42.09 39.11 40.00 46.74 47.30 46.68 44.52 40.16 37.07 40.63 35.38 35.27 32.57 35.91 41.09 47.14 47.81 48.54 47.77 45.47 45.64 45.33 45.64
48.65 44.54 42.09 46.47 47.47 41.09 33.53 36.05 38.42 43.58 43.79 43.65 37.74 40.66 37.10 39.83 40.74 41.55 41.87 46.08 45.07 46.37 46.46 42.66 37.44 44.58 47.13 46.90 46.11 42.41 43.68 36.18 33.76 27.99 27.06 33.32 37.27 39.15 44.83 46.40 47.13 44.38 43.96 45.17 45.33
46.10 39.86 42.05 46.87 44.88 35.25 27.51 34.83 41.00 45.53 45.01 41.78 39.97 38.05 39.85 39.81 41.04 40.27 41.58 45.34 47.28 46.07 46.52 43.22 40.30 40.32 45.25 43.48 41.84 41.48 40.03 39.82 37.34 35.07 29.54 26.54 34.30 45.50 46.66 47.66 47.37 45.88 45.63 45.66 46.07
43.32 34.59 42.74 45.91 32.95 32.42 29.76 35.81 43.49 44.06 45.34 43.95 42.98 41.36 40.06 41.04 39.83 39.57 41.02 44.23 48.38 47.25 42.34 44.07 40.09 37.12 42.12 46.87 48.72 44.20 42.35 41.23 35.36 33.90 36.44 34.95 36.28 47.20 48.47 51.26 49.34 47.26 46.90 46.90 47.67
38.31 38.72 43.42 43.48 28.95 29.28 34.06 35.30 40.08 41.36 42.89 41.12 40.59 42.60 42.58 40.27 36.43 41.31 43.23 47.29 47.09 46.12 43.21 43.60 37.84 34.67 37.25 43.13 45.83 43.13 45.95 44.98 42.44 40.85 37.31 35.52 37.36 48.45 50.82 49.02 48.96 46.49 47.16 47.23 47.43
38.60 32.75 38.36 39.96 36.65 32.83 31.56 32.28 33.92 40.54 39.70 40.92 40.51 41.76 39.34 38.21 39.71 38.92 42.11 46.18 46.37 47.19 52.52 48.91 39.23 39.73 36.28 39.42 43.67 41.59 45.04 45.67 42.71 36.97 39.49 39.83 42.00 45.47 48.65 49.18 50.11 46.77 46.23 46.81 47.83
39.22 34.11 36.12 32.83 34.13 34.22 30.56 31.77 32.11 32.17 39.50 40.52 38.14 39.33 37.70 34.23 36.79 36.77 40.42 42.38 45.58 49.07 46.08 44.69 39.66 41.16 43.41 44.61 45.71 44.15 44.66 45.37 42.24 42.37 40.47 43.20 42.38 46.87 49.29 49.24 51.89 48.57 46.17 46.80 46.97
33.90 35.77 39.00 34.49 36.38 34.24 34.71 31.21 31.89 33.95 34.54 36.12 35.87 38.61 37.76 35.14 36.84 35.32 38.61 39.19 40.12 42.94 43.21 43.28 38.47 43.03 41.80 44.05 45.28 44.03 45.13 46.29 45.45 44.57 43.47 44.49 43.73 50.81 51.89 52.68 51.19 49.91 47.60 47.21 47.61
40.47 42.62 40.31 35.21 32.79 32.24 32.77 33.72 35.05 36.69 38.09 39.10 37.53 36.42 36.53 38.78 40.82 41.15 41.63 41.69 40.22 38.30 38.66 43.07 40.00 39.01 37.25 43.29 43.75 39.35 43.91 44.83 45.18 46.51 45.63 41.38 47.03 49.87 50.10 51.58 51.48 52.36 49.44 48.43 48.78

GFSSW_sfc_wetblb_006.txt.gz
Wetbulb
57.05 57.18 57.25 57.35 57.42 57.35 56.91 57.02 57.44 57.70 58.11 58.96 59.27 59.00 59.08 59.23 58.76 56.29 52.33 56.34 58.64 65.94 64.69 62.66 58.36 57.33 54.87 52.13 54.38 50.44 43.76 40.53 42.55 39.54 41.56 41.93 41.19 44.94 48.27 47.72 48.56 48.61 48.20 49.04 49.63
55.65 55.97 56.19 56.44 56.32 56.61 56.27 56.30 56.52 57.46 57.99 58.62 58.64 58.49 58.69 58.95 55.27 52.69 59.76 64.87 65.97 67.64 56.99 55.81 53.29 53.88 49.86 49.55 50.79 48.12 42.29 44.12 46.92 43.49 42.93 42.99 43.28 45.85 46.83 46.95 45.96 46.72 49.15 49.97 50.09
55.33 55.18 55.34 55.38 55.63 56.03 55.62 55.57 55.87 56.48 57.52 57.76 57.85 57.80 58.37 57.89 51.83 52.47 65.58 65.16 66.75 67.25 57.62 56.21 54.18 52.89 47.19 47.82 48.52 47.02 45.39 47.48 47.94 46.26 45.45 44.11 42.93 46.43 45.92 43.85 45.94 45.05 47.33 48.23 48.37
55.24 55.03 54.87 54.94 54.96 55.06 54.99 55.16 55.48 56.03 56.21 56.31 57.04 57.27 58.37 55.04 41.68 53.59 70.12 69.20 67.61 63.07 56.31 53.54 51.09 47.25 45.14 45.16 48.43 45.11 49.25 48.69 48.64 48.66 44.80 44.37 46.22 46.92 46.31 46.57 49.59 48.27 48.85 47.93 47.61
54.80 54.74 54.68 54.62 54.54 54.39 55.03 54.72 55.02 55.18 55.11 55.44 56.29 57.27 55.10 47.89 49.27 57.93 69.25 68.41 63.25 58.43 55.43 53.19 49.93 47.51 44.74 46.64 48.05 46.53 47.64 47.67 47.37 45.30 45.90 46.64 45.55 45.98 46.70 49.42 49.86 48.64 48.62 47.66 47.24
53.91 53.95 54.05 54.07 53.91 53.77 54.42 54.52 54.64 54.68 54.84 55.06 56.20 57.19 49.61 42.85 53.45 55.60 59.28 62.22 60.64 56.58 54.94 54.01 52.17 51.74 47.82 47.84 47.57 49.18 47.11 46.70 44.92 43.82 44.71 45.11 44.74 46.17 47.51 49.50 48.07 47.78 46.93 47.34 48.13
53.51 53.39 53.60 53.39 53.11 53.01 53.69 53.81 53.41 53.78 54.39 55.44 56.16 55.74 49.89 44.95 52.05 57.74 60.52 57.52 58.59 57.57 54.45 54.85 54.25 52.34 50.14 47.25 48.61 46.92 44.51 46.24 45.93 44.53 44.27 45.65 43.07 44.44 47.99 48.26 46.42 46.39 46.66 47.35 47.99
53.57 53.59 53.08 52.88 52.84 52.70 52.95 53.43 53.18 53.80 55.22 56.22 57.36 54.37 44.68 52.05 53.51 51.06 51.66 54.03 57.11 58.32 56.15 55.78 54.67 52.19 50.81 50.51 48.36 44.54 42.42 38.98 44.22 45.60 45.94 44.66 39.69 45.45 47.89 46.85 45.25 45.92 46.35 46.93 47.58
53.55 53.35 53.16 52.85 52.65 52.67 52.71 52.67 53.11 54.22 58.60 58.60 53.79 49.54 43.82 54.87 53.54 54.11 53.36 52.26 55.56 56.15 56.10 57.40 52.45 49.40 47.92 44.89 42.37 42.69 39.53 40.25 42.91 45.48 44.38 42.90 41.44 45.23 47.21 46.87 45.04 44.86 45.76 46.57 46.74
53.56 53.18 53.06 52.56 52.40 52.50 52.34 51.94 51.80 53.58 58.38 58.05 56.53 45.02 45.19 44.79 51.94 54.38 54.72 55.44 53.74 53.30 52.13 51.03 47.07 44.18 41.48 40.86 36.57 38.61 39.16 40.98 40.87 43.94 43.29 41.06 41.53 43.88 46.77 46.60 45.48 44.59 45.47 45.87 46.80
53.76 53.16 52.91 52.83 52.08 52.03 49.28 43.57 44.34 46.44 50.34 45.31 44.23 44.64 48.31 52.76 53.69 52.94 56.29 55.07 53.74 50.25 45.06 46.56 42.90 39.77 41.87 43.57 44.54 43.42 41.32 40.93 43.75 45.65 42.83 41.90 42.07 45.11 45.29 44.62 43.89 43.55 43.90 44.76 46.06
53.69 53.71 52.93 52.66 51.83 51.86 45.61 40.10 43.05 42.62 39.63 47.87 48.11 49.38 51.98 51.82 48.00 50.05 55.69 50.37 48.81 44.58 46.11 43.59 41.14 44.61 45.98 45.14 43.62 41.88 39.85 39.37 42.37 44.34 42.14 42.02 41.45 42.95 44.47 45.01 45.24 43.79 43.48 44.34 45.40
53.37 53.20 52.62 52.31 51.97 44.59 42.17 44.20 45.74 43.74 39.11 45.44 48.26 48.14 49.02 50.85 47.31 48.10 52.98 50.70 47.27 44.28 43.74 41.87 44.12 47.59 46.02 44.11 42.59 41.32 39.30 39.47 40.35 42.31 41.68 39.58 38.11 40.35 43.57 44.29 45.49 44.24 44.95 45.06 45.38
53.39 53.02 52.61 52.04 43.11 41.95 39.85 45.07 44.90 43.26 36.51 40.62 45.01 48.03 49.03 49.91 45.95 51.77 54.23 51.62 47.30 45.05 44.41 43.48 46.67 46.33 43.72 43.39 43.71 38.55 44.26 43.53 42.07 38.82 33.77 39.95 30.15 38.12 41.08 42.32 44.47 43.05 42.83 44.41 44.92
53.70 52.94 52.45 50.69 41.97 40.39 42.28 45.15 44.90 43.07 23.20 41.28 44.88 51.40 48.77 46.71 46.96 48.17 52.83 49.94 45.80 46.11 45.18 44.32 43.66 43.42 42.67 44.17 44.82 42.53 45.29 42.92 41.83 37.51 34.31 36.19 31.20 36.67 40.62 41.58 42.67 43.28 43.03 43.69 44.70
53.23 52.96 52.39 44.83 41.62 43.50 45.40 44.63 43.04 35.52 26.65 38.89 45.24 44.45 43.57 45.68 46.04 47.40 48.79 51.38 50.14 45.73 44.70 46.10 47.65 46.49 45.99 47.00 46.41 46.81 42.15 39.91 37.73 34.89 28.40 35.45 34.03 33.71 37.65 42.06 43.36 43.82 43.74 44.20 44.55
52.95 53.08 50.99 46.03 38.79 43.54 43.70 41.65 34.27 28.36 40.18 38.14 40.16 43.42 43.66 42.13 43.57 45.32 44.74 43.72 42.26 38.68 39.21 42.52 43.00 45.80 47.82 43.57 43.15 41.63 36.23 29.87 27.55 27.35 28.26 36.57 34.20 36.81 42.88 44.70 45.54 45.55 44.00 44.28 45.32
51.36 51.94 51.16 47.22 45.24 44.71 40.47 36.85 28.17 36.84 36.65 42.80 40.85 42.29 40.48 42.57 42.60 43.11 41.76 41.54 43.70 42.80 39.33 37.74 37.05 43.90 46.18 44.56 41.56 38.67 37.43 31.12 25.33 25.02 29.88 37.28 33.29 39.09 44.81 47.54 48.13 47.85 45.85 44.93 44.65
49.84 48.39 47.57 47.55 46.52 43.60 35.76 30.00 33.05 36.36 41.43 39.72 40.27 38.16 38.55 42.24 42.02 41.86 41.29 41.76 43.23 43.93 41.10 37.29 38.27 44.99 46.11 45.99 45.51 39.02 35.61 38.75 33.31 32.87 30.54 33.43 38.68 44.53 46.89 47.08 46.54 44.00 44.28 44.05 44.53
45.75 44.93 45.87 47.17 47.30 39.82 31.17 32.49 36.18 42.27 42.49 42.51 36.43 38.77 36.23 38.86 39.90 40.76 39.92 43.69 42.69 45.33 45.39 41.18 36.33 43.41 45.86 45.19 43.33 42.96 43.12 34.89 32.10 26.78 25.65 31.19 34.65 36.99 42.26 44.96 46.17 44.61 42.70 43.74 44.59
44.50 39.51 46.13 48.10 46.14 37.06 26.48 29.92 36.56 44.24 43.46 40.70 39.10 37.22 38.12 38.07 39.93 38.59 39.75 43.47 45.69 44.36 46.51 41.67 39.76 38.96 43.26 41.37 39.83 39.13 37.72 37.81 35.51 32.90 27.69 24.71 31.97 41.58 44.33 47.84 47.78 46.19 43.95 44.22 45.07
42.64 33.95 45.79 46.38 34.85 34.66 30.08 33.19 39.11 40.02 43.96 42.25 41.14 39.82 38.40 39.33 38.53 39.36 39.72 42.84 46.72 46.62 41.48 42.61 39.14 35.73 40.68 43.11 46.28 43.33 40.41 40.20 33.42 31.73 33.73 32.07 34.03 45.38 47.38 49.51 50.67 48.97 45.17 44.44 45.83
38.39 38.51 44.84 43.60 31.01 30.59 32.87 34.15 36.26 37.05 40.62 39.54 39.24 41.26 41.35 39.35 36.14 39.44 41.13 45.13 45.68 46.24 41.58 42.39 35.98 31.73 33.53 41.25 44.01 42.34 43.29 40.86 39.55 37.42 35.28 33.51 34.97 46.27 48.70 48.68 50.25 48.47 44.88 45.15 45.66
34.16 31.61 36.86 39.30 38.31 32.56 30.59 30.91 31.45 37.98 37.42 39.87 39.07 40.42 38.85 38.38 38.54 37.85 40.18 44.43 44.84 45.72 51.15 47.83 37.16 37.18 35.34 36.12 42.40 40.14 43.60 43.19 40.67 34.69 36.13 37.26 40.08 44.17 47.76 48.50 49.42 46.79 45.34 45.11 45.88
35.08 32.72 36.86 30.64 33.52 32.53 31.08 31.22 31.31 30.80 38.00 38.93 36.87 38.23 36.53 34.16 35.82 35.62 38.93 40.85 44.27 48.24 45.20 42.19 36.07 37.75 39.20 41.47 43.37 43.01 43.11 43.38 40.58 40.99 38.35 40.40 41.30 45.24 46.31 48.72 50.35 47.31 45.14 44.85 45.19
33.09 34.13 37.29 33.36 35.34 34.01 33.44 29.73 30.76 33.71 32.81 34.66 34.45 38.28 37.13 34.19 35.33 34.48 37.09 37.73 38.36 39.76 39.49 41.05 36.14 38.03 37.10 41.29 41.27 40.77 42.93 44.69 44.54 42.10 41.89 42.61 41.36 47.69 49.38 50.91 51.38 48.69 45.95 45.82 46.30
39.07 41.28 38.69 33.94 35.02 33.20 32.57 32.37 33.45 34.66 36.15 36.91 36.73 35.44 34.28 37.02 39.37 39.11 38.99 38.89 38.40 37.50 36.08 37.90 38.59 35.61 31.87 40.60 40.07 36.95 41.44 43.78 44.36 44.22 43.91 40.87 44.49 47.52 48.18 49.97 50.19 50.37 47.22 46.93 47.55

GFSSW_sfc_wetblb_009.txt.gz
Wetbulb
56.42 56.18 56.34 56.49 56.82 56.84 56.59 56.49 56.85 57.14 57.56 58.07 58.25 58.61 58.86 59.07 58.82 57.64 52.84 57.81 60.31 66.71 66.96 64.15 62.06 60.23 59.43 58.54 59.34 56.76 52.08 48.55 49.60 49.57 51.08 49.74 49.32 50.19 52.23 51.42 52.06 52.78 52.60 53.20 54.48
55.92 55.80 55.93 55.87 55.92 56.23 55.81 55.97 56.07 56.96 57.48 57.67 57.77 57.93 58.41 58.76 56.29 53.07 59.97 64.26 66.36 67.65 62.83 60.12 58.12 58.63 56.64 55.86 56.31 54.69 50.95 50.55 54.03 53.02 51.69 50.38 50.01 50.48 50.86 50.37 50.56 51.08 52.12 53.17 54.27
55.52 55.42 55.51 55.49 55.55 55.81 55.47 55.48 55.55 55.98 56.61 56.86 56.73 57.07 58.11 58.46 53.58 52.21 66.79 65.71 66.62 66.42 60.31 60.02 59.08 57.61 54.67 54.74 54.64 53.60 49.72 52.36 52.96 54.22 52.91 50.77 48.61 51.24 50.55 49.03 51.99 51.74 51.79 52.94 53.85
54.58 55.01 54.93 55.07 55.19 54.83 54.77 54.79 54.91 55.41 55.66 55.62 56.07 57.06 58.02 56.86 43.11 54.68 69.94 67.52 67.75 63.55 59.26 57.31 56.29 53.89 52.10 50.98 53.73 50.19 53.40 53.88 54.01 52.89 49.92 49.01 50.21 49.49 51.11 52.21 53.40 53.87 53.91 53.37 53.60
53.87 53.91 53.95 54.09 54.19 54.00 53.94 53.87 54.12 54.35 54.46 54.53 55.62 56.76 56.16 49.77 48.10 58.31 69.02 68.41 65.23 60.67 56.99 56.59 54.76 53.77 51.14 51.97 51.90 51.19 52.67 51.76 52.16 50.44 50.34 49.84 49.20 50.00 50.70 53.03 53.34 53.25 52.71 53.11 53.80
53.59 53.55 53.49 53.59 53.42 53.55 53.97 53.97 53.85 53.93 53.74 54.40 55.43 56.65 52.48 43.78 53.01 56.91 56.90 60.84 60.33 59.01 57.26 57.10 55.91 56.18 53.25 51.94 51.62 53.28 52.14 50.09 49.73 49.38 49.51 49.08 48.85 49.90 51.68 53.34 52.10 52.15 52.54 52.84 53.28
53.89 53.44 53.42 53.27 53.24 53.28 53.61 53.72 53.43 53.41 53.81 55.01 55.98 55.51 51.10 47.45 52.73 61.00 62.07 60.86 61.90 59.65 56.36 57.97 57.68 55.78 55.43 52.22 54.11 51.17 49.00 49.56 49.63 49.60 49.27 50.12 47.61 48.30 52.75 53.04 51.91 51.54 51.81 52.23 53.61
54.15 53.97 53.37 53.15 53.03 53.05 53.06 53.54 53.21 53.47 54.44 56.42 56.92 55.23 46.31 53.82 55.58 53.15 55.96 56.04 57.78 60.70 58.78 58.82 58.23 55.93 54.27 53.94 51.38 48.77 48.30 45.80 49.00 48.91 48.78 49.19 45.60 51.29 52.49 51.63 51.33 50.64 50.75 51.66 52.94
54.17 53.70 53.56 53.05 52.93 52.86 52.94 52.89 52.84 53.69 56.10 57.69 55.13 52.90 47.19 56.34 53.55 54.50 53.69 50.61 52.94 57.95 59.54 57.98 57.92 55.01 52.13 49.95 47.35 47.85 45.27 46.13 46.44 49.24 47.96 47.95 46.34 50.79 51.11 51.57 51.59 50.49 50.67 51.41 52.46
53.82 53.47 53.47 52.98 52.77 52.81 52.57 52.21 51.87 52.55 58.41 57.53 57.08 49.38 50.94 48.05 52.08 56.12 55.38 53.91 54.92 56.05 55.24 55.07 53.11 51.18 49.99 48.13 42.20 44.75 44.43 44.82 45.30 48.43 47.42 46.61 46.24 50.54 51.42 50.82 50.97 50.67 50.56 51.35 52.03
54.44 53.44 53.49 53.37 52.73 52.36 50.68 46.96 48.71 50.18 54.21 48.48 48.45 46.93 48.11 53.14 55.02 54.31 56.69 53.31 55.81 54.42 50.15 52.20 49.25 47.03 49.20 49.58 48.97 48.49 46.53 45.53 47.33 49.67 47.39 47.63 47.83 49.43 51.46 50.25 50.30 50.59 50.57 51.29 52.22
53.97 54.02 53.76 53.23 52.46 52.15 48.49 43.42 43.70 44.02 41.86 48.52 49.32 51.49 53.26 53.36 48.38 51.50 57.83 52.58 52.82 48.76 50.79 48.49 47.21 51.01 51.05 49.54 48.01 47.12 45.67 45.65 47.90 48.36 47.72 48.11 47.24 50.16 50.69 50.66 51.60 51.75 50.87 51.32 52.39
53.66 53.82 53.06 52.61 52.33 47.67 43.62 45.16 48.16 46.60 42.72 46.09 49.09 49.20 50.62 51.78 48.62 49.35 55.19 53.12 50.81 48.63 49.28 48.28 49.94 50.30 49.33 47.71 46.68 46.96 46.05 46.01 46.02 46.86 47.63 46.14 45.43 48.34 50.90 50.09 50.71 51.97 52.77 52.35 52.41
52.75 53.70 52.98 52.14 46.17 45.62 42.84 47.22 48.24 46.01 39.80 42.47 45.91 49.19 50.80 51.42 47.39 52.61 54.43 53.89 50.88 48.74 49.35 49.88 50.50 48.91 48.12 47.71 48.61 45.35 48.93 47.93 46.63 44.93 41.98 46.41 39.84 46.37 49.59 50.14 50.64 51.52 50.79 51.34 52.11
52.08 53.20 53.07 50.57 46.43 44.10 44.93 48.37 48.18 45.63 29.44 43.55 46.65 53.52 51.50 48.17 49.39 49.39 54.71 53.44 49.96 49.06 49.92 48.11 47.69 47.90 47.21 48.21 49.50 47.55 49.32 47.92 46.85 45.35 43.41 43.27 40.91 44.90 47.25 48.15 51.19 53.76 51.57 51.47 52.57
51.88 52.04 52.45 47.84 47.42 47.44 48.33 47.63 46.72 39.05 29.91 41.13 47.36 46.35 46.11 47.78 48.04 49.66 50.38 54.13 54.26 50.47 50.02 50.80 51.63 51.21 50.49 50.79 50.27 50.91 47.53 45.77 44.88 44.04 39.19 43.55 42.35 43.57 46.34 49.15 51.37 52.87 52.02 51.09 52.10
51.06 51.31 50.70 47.02 43.34 47.71 47.62 44.89 38.60 32.58 42.42 40.78 42.55 45.77 45.77 44.58 45.73 47.78 46.45 46.25 46.47 44.29 45.08 47.91 48.88 50.49 51.86 48.81 48.84 49.10 46.42 40.28 38.47 38.95 37.88 42.49 41.15 44.86 50.36 51.89 51.33 52.22 52.86 51.41 52.02
50.52 50.78 49.92 47.62 46.13 48.30 45.54 39.73 31.68 38.50 39.56 44.12 43.41 45.33 42.68 45.29 45.06 45.32 45.39 43.58 48.64 48.79 46.13 43.12 41.42 47.88 50.37 49.82 47.40 47.17 47.29 40.93 33.76 35.65 39.13 42.10 39.96 44.66 51.65 52.97 53.66 53.33 53.41 51.75 51.51
49.22 48.66 46.97 48.66 47.84 47.59 39.31 32.67 35.47 38.91 42.93 41.93 42.87 42.12 42.17 44.39 44.66 44.24 44.60 44.48 47.01 49.94 44.24 43.43 43.24 49.17 49.89 50.94 50.70 44.91 43.39 48.30 43.32 41.01 39.38 42.41 45.15 50.04 52.32 53.24 52.11 50.60 50.02 49.89 51.58
45.96 45.08 44.14 48.23 48.67 43.46 35.02 33.28 38.22 43.52 44.42 43.97 40.03 42.72 40.64 42.25 42.55 43.15 43.27 46.35 45.75 49.10 52.33 47.03 42.45 47.93 49.29 50.65 49.36 48.59 48.93 42.15 42.75 35.47 34.25 39.56 41.11 43.57 48.84 51.18 52.86 50.39 50.00 50.42 51.88
44.44 39.39 45.97 49.34 46.82 38.22 29.91 33.33 38.09 43.50 44.77 43.00 41.52 41.60 42.54 42.00 43.41 42.64 42.96 45.52 47.98 47.24 50.74 49.56 47.34 44.16 47.50 46.79 46.28 45.44 44.94 45.08 44.79 42.46 37.94 36.52 40.96 50.67 50.99 54.06 55.17 54.60 52.43 51.20 51.70
42.10 33.88 46.64 48.48 34.71 34.89 32.16 35.34 38.76 39.17 43.10 42.44 44.22 43.60 42.67 43.27 43.07 42.88 42.72 45.18 48.25 49.50 45.90 49.53 48.05 43.10 44.39 48.57 51.33 49.72 47.24 47.60 41.89 40.51 42.17 41.61 41.89 51.76 54.19 55.61 56.44 54.82 52.56 52.32 52.85
37.30 36.91 46.55 45.58 29.82 32.60 35.81 35.54 37.01 36.29 38.14 40.91 41.82 43.44 44.96 43.55 41.59 44.36 44.50 48.01 48.07 48.37 48.40 48.71 47.08 41.19 41.72 46.74 49.43 46.40 47.46 48.73 47.91 46.99 42.56 39.88 42.58 52.24 54.44 55.27 55.47 54.11 52.45 51.45 52.37
36.59 31.86 35.03 40.44 39.37 35.08 33.85 33.09 32.51 38.26 37.54 38.44 38.00 43.49 42.65 42.04 43.85 42.07 43.98 45.77 47.76 48.74 52.74 51.12 47.76 44.65 39.96 42.95 47.40 45.66 46.62 47.24 47.21 43.06 43.15 43.45 45.47 49.93 52.67 54.25 54.51 54.82 53.63 52.66 52.23
36.71 33.37 35.49 30.70 32.57 33.85 34.60 34.50 32.20 32.02 37.95 40.69 38.67 40.12 40.56 39.97 41.41 41.52 43.33 44.48 46.01 50.40 49.62 50.26 44.29 45.64 46.59 46.77 47.60 46.87 46.95 47.81 45.70 46.66 43.44 45.92 46.40 50.21 53.33 54.76 56.67 56.42 53.41 51.83 51.95
33.13 34.35 35.25 34.85 33.75 34.34 34.89 32.89 32.72 34.39 35.64 35.71 36.39 40.88 40.33 39.13 40.06 40.65 41.99 43.04 42.57 45.15 47.65 46.87 44.57 45.50 43.53 45.58 46.12 44.54 46.31 47.69 47.98 47.68 47.58 47.80 47.77 54.26 55.49 56.80 55.99 54.63 52.34 51.91 52.58
39.54 41.34 37.49 35.37 34.67 34.45 33.65 33.83 34.25 36.49 37.77 38.73 38.60 37.81 38.11 40.42 43.56 44.62 44.57 44.57 43.41 42.59 42.90 45.48 45.69 42.82 40.33 44.31 44.29 40.84 44.98 45.98 47.80 49.38 48.64 45.50 50.05 54.12 53.87 55.18 56.72 55.91 53.77 53.78 54.27

GFSSW_sfc_wetblb_015.txt.gz
Wetbulb
55.68 55.98 56.05 56.22 56.23 56.18 56.22 56.12 56.28 56.57 56.81 57.26 57.51 57.89 58.27 58.90 58.21 60.87 56.01 60.59 63.24 68.13 68.36 66.74 65.35 64.51 64.37 61.76 62.17 61.89 54.56 52.36 53.54 53.41 55.01 58.14 57.01 59.16 59.16 57.19 56.80 57.15 57.03 59.20 61.78
55.22 55.24 55.22 55.31 55.32 55.55 55.56 55.50 55.69 55.75 56.19 56.48 56.73 57.04 57.88 58.19 58.78 55.37 62.28 64.81 67.94 68.97 65.88 63.81 61.70 62.26 60.00 59.47 59.81 57.60 53.97 53.21 56.05 56.29 55.62 57.34 57.55 58.01 57.00 56.57 55.92 56.36 58.46 58.92 60.19
54.94 54.98 54.94 54.94 54.98 54.79 54.76 54.91 55.13 55.31 55.69 56.10 56.40 56.70 57.21 57.98 56.18 55.17 68.97 66.24 68.09 68.32 63.62 64.92 63.57 61.46 58.41 59.53 58.49 57.62 53.28 55.24 55.17 56.14 57.42 56.92 56.50 57.73 56.26 54.62 56.50 54.99 56.54 59.03 59.37
54.73 54.91 54.90 54.88 54.65 54.63 54.55 54.61 54.75 55.07 55.14 55.02 55.38 56.43 57.36 58.06 46.73 61.37 68.06 67.71 68.31 65.30 60.87 61.06 61.16 59.02 57.84 56.32 58.96 55.36 57.01 56.28 55.18 56.19 57.52 55.82 57.32 55.95 55.99 56.06 57.59 56.98 57.23 59.00 58.90
54.85 54.69 54.62 54.52 54.47 54.37 54.32 54.39 54.60 54.48 54.40 54.30 55.14 56.05 57.08 53.21 52.31 60.86 69.13 67.22 62.51 60.15 58.82 58.04 58.24 58.37 56.55 57.64 57.53 55.86 55.81 56.61 56.42 56.76 57.93 57.50 55.52 55.74 55.40 57.11 57.43 57.23 57.40 57.80 58.86
55.19 54.61 54.51 54.29 54.23 54.35 54.86 54.86 54.75 54.59 53.97 54.12 55.24 56.28 54.15 46.65 55.74 57.43 62.34 64.05 63.27 60.25 58.55 58.96 58.84 59.92 57.73 57.05 55.48 57.36 57.06 56.06 56.42 56.69 57.37 54.80 55.58 54.71 56.34 56.80 56.42 57.41 56.86 57.02 58.17
54.94 54.94 54.92 54.43 54.27 54.66 54.91 54.65 54.32 54.43 54.15 54.80 55.34 55.89 52.58 49.66 56.52 57.71 56.44 56.39 58.70 60.77 58.57 59.08 59.36 58.22 57.97 55.41 57.89 57.35 53.85 55.13 55.33 56.30 55.82 56.41 52.94 53.98 57.06 57.60 56.29 56.33 57.65 58.12 58.97
55.44 54.84 55.01 54.66 54.63 54.65 54.80 54.48 54.20 54.13 54.52 55.27 55.58 56.67 50.43 56.09 58.49 56.17 57.77 58.78 60.74 60.19 57.70 60.69 59.56 57.82 57.61 58.42 56.09 54.05 54.50 50.92 54.85 55.83 55.88 54.50 50.20 56.16 57.80 56.95 56.56 56.97 57.66 58.04 59.02
54.21 54.78 55.03 54.90 54.84 54.70 54.44 54.11 54.13 54.33 54.74 55.42 57.23 55.87 49.80 59.55 54.61 55.97 56.98 54.09 55.49 59.76 59.58 59.77 59.50 55.47 56.76 53.32 51.66 53.43 48.80 50.17 51.94 56.34 55.26 54.03 51.53 55.99 57.85 56.75 55.98 56.90 57.74 57.85 58.35
53.25 53.79 54.09 55.03 54.96 54.47 54.01 53.61 54.71 54.76 56.18 59.35 56.93 53.07 54.94 51.20 54.73 56.35 57.23 55.67 54.03 56.60 56.76 56.65 56.26 53.04 53.80 51.97 46.70 49.54 50.11 51.04 50.55 54.53 55.36 53.09 52.95 55.83 57.02 56.40 55.73 56.84 57.98 58.41 58.52
52.77 53.03 52.92 53.79 54.57 54.15 52.96 54.85 52.16 52.88 55.43 51.34 51.36 51.17 51.38 54.65 55.67 54.68 56.72 55.20 54.48 53.14 50.11 54.43 51.82 49.13 51.84 53.54 53.37 52.92 52.09 50.87 53.15 55.11 53.81 53.11 53.20 54.98 56.50 56.16 55.83 56.28 57.59 58.69 59.19
51.71 52.59 52.86 53.15 53.83 54.17 53.96 50.28 51.93 51.48 48.09 55.84 55.38 54.31 55.36 55.41 51.74 52.86 57.93 51.78 50.99 47.68 50.27 52.31 49.42 53.19 54.13 53.75 53.13 52.90 51.64 50.80 53.36 55.15 53.92 53.42 52.45 54.59 55.22 55.65 56.25 56.58 57.51 58.56 59.58
50.82 51.12 52.29 53.10 53.27 52.81 52.34 52.86 55.35 54.53 47.12 49.02 51.80 52.86 53.15 54.68 51.52 52.50 55.16 52.54 49.44 48.59 48.77 49.61 52.33 54.33 53.19 52.53 51.92 52.34 51.16 51.22 51.31 53.84 54.83 52.92 50.76 52.59 54.97 56.04 56.34 56.93 58.14 59.31 59.84
49.87 50.82 51.75 52.63 49.59 53.75 52.04 55.52 55.14 54.60 43.24 46.53 49.07 51.05 52.58 53.49 49.96 54.99 55.77 54.22 50.60 47.89 50.18 51.19 54.12 52.87 52.07 51.78 53.09 50.05 53.65 52.73 51.63 50.73 46.85 52.92 44.63 51.01 53.37 53.24 54.64 55.85 57.59 58.52 59.92
50.27 49.57 50.85 51.62 48.90 51.71 52.78 55.24 54.77 52.88 35.22 50.01 50.94 55.54 53.43 50.45 50.58 51.24 56.52 54.36 49.79 49.05 50.53 49.21 51.36 51.85 51.12 52.15 54.13 51.65 54.23 52.81 52.22 50.30 49.82 49.27 46.94 49.83 52.87 51.30 52.73 55.09 56.71 59.47 60.53
50.85 49.85 50.66 50.89 52.00 53.18 55.31 54.69 52.25 41.99 35.15 46.71 51.01 49.57 49.24 49.76 50.39 52.50 51.86 55.23 54.52 50.63 51.10 50.68 54.68 53.64 53.25 54.48 54.86 55.20 52.71 52.26 52.01 50.26 44.03 48.03 47.50 47.72 50.18 50.94 52.29 54.86 56.85 59.26 60.03
51.48 50.32 49.47 51.00 48.93 53.59 53.14 50.80 38.93 36.22 47.34 46.25 47.52 49.91 48.66 47.53 48.36 49.53 48.28 48.71 48.51 45.08 46.83 49.59 50.54 54.01 54.95 52.76 54.74 53.48 50.85 44.35 42.75 43.55 42.23 49.66 47.29 49.08 52.77 52.73 53.41 54.68 57.03 60.43 60.11
51.13 50.23 49.10 50.57 54.42 52.24 48.96 42.63 33.56 41.81 44.56 49.25 49.08 49.26 46.71 48.92 47.94 48.40 47.71 46.62 50.73 49.96 48.05 45.79 44.53 51.60 55.04 53.52 51.46 51.18 50.37 44.76 38.71 41.32 44.64 49.91 44.92 49.50 53.85 54.57 55.43 57.43 59.72 60.89 59.92
50.18 48.98 48.42 49.52 53.16 50.57 42.49 33.10 36.63 43.16 47.17 46.99 48.14 46.27 46.71 48.82 48.37 48.04 48.01 46.98 49.19 51.68 47.72 46.73 47.20 52.79 54.23 54.82 54.04 51.08 47.97 51.87 47.39 48.25 45.05 47.32 50.31 53.16 53.60 53.28 55.56 57.39 58.56 59.41 59.59
46.19 44.12 44.55 50.23 53.04 47.39 36.70 32.62 40.34 45.42 46.78 48.54 44.23 46.99 45.33 47.34 46.94 47.07 47.45 50.03 48.77 51.17 53.52 51.79 47.00 52.00 52.81 54.86 54.48 52.61 53.42 46.80 47.91 40.80 39.88 45.27 46.80 48.29 50.73 52.22 56.14 57.69 58.27 58.92 59.29
44.26 39.15 47.39 50.81 51.53 41.80 30.80 35.39 40.21 45.68 47.06 43.47 44.44 44.90 47.10 47.52 48.24 47.65 47.41 49.95 51.11 50.35 52.09 51.89 51.34 50.19 52.58 51.04 50.03 49.90 48.82 50.55 50.45 48.22 42.91 41.90 45.76 53.74 52.81 53.54 54.46 57.98 59.17 58.87 58.91
43.00 37.92 49.63 52.39 38.15 37.67 32.88 38.68 41.37 42.36 45.79 44.69 44.68 44.37 45.40 48.39 48.29 47.75 47.61 49.87 52.41 52.29 48.60 52.99 52.00 48.04 49.38 53.66 54.61 52.88 50.29 51.27 46.26 45.08 47.80 47.25 47.18 55.02 54.92 55.12 56.88 57.79 59.60 59.53 59.65
39.11 41.20 50.39 49.56 32.00 35.45 39.22 38.91 39.88 40.94 41.93 42.15 42.49 44.67 46.45 45.44 45.30 49.21 49.65 52.45 52.36 51.79 51.12 53.46 50.41 46.55 48.29 51.06 53.12 50.62 51.35 51.51 52.17 51.70 47.47 44.71 46.54 55.82 56.20 55.42 56.82 57.87 59.59 59.60 59.48
40.90 36.95 42.43 44.22 42.22 36.92 36.83 37.41 35.83 42.61 41.51 42.48 42.19 44.71 42.87 43.17 48.30 47.78 49.36 51.58 52.53 51.73 54.56 55.35 52.38 49.02 45.81 48.54 50.66 48.34 49.61 50.92 50.69 47.31 47.18 47.85 49.46 52.96 54.58 54.62 56.48 58.52 59.93 60.43 59.60
43.29 38.41 40.75 33.96 35.92 36.24 36.30 37.32 36.50 36.24 42.40 43.20 41.33 41.92 41.74 41.99 46.71 47.38 50.16 51.03 51.59 53.22 53.91 55.02 50.03 50.28 50.52 51.20 50.96 49.98 49.27 49.71 48.92 49.66 47.56 49.48 50.02 52.88 54.80 55.79 56.48 59.19 60.10 59.97 59.42
38.95 38.81 41.58 38.93 37.90 36.42 36.12 35.48 35.24 37.73 39.71 39.32 38.97 41.75 42.37 42.34 45.30 44.17 47.85 50.56 49.82 51.20 51.12 56.15 49.76 50.64 48.23 50.15 50.34 48.91 50.24 50.35 49.66 50.20 50.23 50.97 50.97 55.51 56.63 56.78 57.10 57.95 59.79 59.31 59.67
46.99 46.97 40.62 36.21 35.36 36.20 34.73 37.04 37.09 39.61 40.22 41.96 42.04 40.58 39.91 43.58 45.91 47.56 50.46 51.02 53.24 50.84 50.99 51.35 50.83 49.14 45.21 48.76 48.25 46.23 49.31 49.94 50.28 50.94 50.88 48.44 52.54 55.74 54.73 55.68 56.56 58.06 59.26 59.55 60.31

GFSSW_sfc_wetblb_021.txt.gz
Wetbulb
55.67 55.73 55.82 55.70 55.81 55.70 55.72 55.74 55.91 55.98 56.30 56.50 56.69 57.29 57.26 58.03 57.35 55.14 52.99 55.86 58.37 65.14 67.24 63.75 63.15 61.92 61.06 59.28 60.47 60.10 48.98 47.35 49.40 50.24 51.34 52.90 51.94 55.98 57.78 55.71 56.50 55.38 54.88 58.37 59.56
55.87 55.91 55.80 55.57 55.56 55.66 55.59 55.55 55.60 55.63 55.87 56.07 56.22 56.37 57.02 57.50 52.75 50.59 58.22 64.49 65.26 67.47 61.16 60.89 59.34 60.11 57.11 57.19 57.62 54.34 47.80 50.06 54.22 54.21 52.83 52.59 51.97 54.27 54.93 54.48 55.89 55.06 57.53 59.50 59.15
56.00 56.15 56.43 56.21 55.57 55.83 55.44 55.32 55.45 55.63 55.75 55.63 55.58 55.76 56.70 56.53 50.45 50.02 68.57 66.64 65.65 67.48 59.24 58.19 60.57 59.89 55.71 57.30 56.39 54.44 49.95 53.40 54.36 55.79 55.71 52.83 51.70 53.53 53.77 51.52 54.64 53.08 54.83 56.40 56.73
55.58 56.10 56.10 56.18 55.42 55.86 55.73 55.07 55.05 55.11 55.29 55.53 55.37 55.89 56.42 53.48 40.02 55.78 68.62 68.90 68.36 64.47 58.35 55.09 55.05 54.31 54.29 53.38 56.82 52.17 54.62 54.98 55.27 56.55 55.82 52.63 54.60 53.04 54.03 53.07 55.69 55.70 56.57 55.55 55.07
54.04 54.28 55.12 56.28 56.22 55.88 55.67 55.85 55.09 54.80 54.87 55.03 55.12 55.65 52.69 47.52 47.53 59.05 69.00 67.63 64.88 62.81 56.19 53.67 51.02 51.46 50.23 54.47 55.47 53.60 54.26 56.12 56.93 56.50 53.44 54.70 53.78 53.50 53.01 56.39 56.19 55.87 56.50 55.27 54.51
53.86 53.73 54.10 55.01 55.81 55.81 55.55 55.24 55.26 55.16 55.26 54.97 55.40 55.88 50.16 41.00 52.32 54.28 53.95 59.76 59.54 57.38 54.94 53.71 52.01 52.92 51.62 53.28 53.57 55.73 55.36 55.29 56.27 55.35 53.88 53.74 53.88 52.87 54.24 56.87 54.94 54.80 53.15 53.35 54.21
52.94 53.83 53.88 54.27 54.84 55.23 55.54 55.46 55.03 55.34 55.57 55.48 55.85 53.51 46.69 44.14 53.88 54.74 53.44 51.22 54.47 57.53 54.42 54.87 54.54 52.16 51.29 48.85 53.25 53.57 50.98 53.01 54.07 53.90 52.44 55.03 50.38 50.89 54.72 55.37 54.50 54.41 53.57 54.00 54.25
51.96 52.46 53.37 53.50 53.52 54.08 54.47 54.74 54.63 55.05 55.26 55.95 56.05 51.47 42.62 51.56 53.14 51.32 52.30 51.49 53.51 55.35 58.24 57.28 55.43 52.31 51.05 51.78 51.31 48.83 49.74 46.37 51.26 52.98 53.71 52.21 46.46 51.87 54.94 53.99 53.91 54.65 54.66 54.94 54.34
52.89 52.02 52.13 52.30 53.15 53.25 53.77 53.78 53.72 53.99 54.89 55.81 51.56 47.64 40.61 54.55 49.47 52.33 52.92 50.50 52.33 53.59 57.46 59.97 56.96 51.06 50.97 47.38 45.10 46.64 42.31 45.18 48.30 53.40 52.76 51.21 48.35 52.83 54.99 53.79 53.35 53.76 53.93 54.65 53.98
53.37 52.64 52.02 51.52 51.84 53.26 53.31 53.14 52.87 53.40 53.34 54.34 52.67 44.11 47.18 47.53 51.41 53.43 53.61 53.44 51.70 51.92 50.13 49.82 48.93 45.66 45.62 45.11 38.92 41.60 42.95 46.53 46.75 50.94 51.43 50.43 49.21 52.15 54.21 53.74 53.16 53.59 54.23 54.71 54.67
53.56 53.31 52.58 52.27 51.64 52.08 50.95 46.83 45.42 46.32 48.87 45.08 45.69 44.86 49.81 52.80 55.55 54.07 54.45 52.77 51.56 48.59 44.32 49.01 43.67 42.46 44.11 46.29 47.85 46.74 46.40 45.95 49.19 52.03 50.22 50.26 50.01 52.49 54.13 53.49 52.64 52.78 53.22 53.19 54.03
52.87 53.18 52.89 52.50 51.85 51.69 48.83 42.26 45.55 46.83 41.46 49.29 48.60 48.86 50.59 52.28 48.54 52.11 54.91 49.02 46.84 42.41 45.58 43.29 40.37 45.70 49.72 48.31 48.32 46.95 44.95 44.99 49.05 51.91 51.42 50.48 49.60 52.50 53.38 52.64 52.69 52.94 52.62 52.93 54.32
52.90 53.14 53.02 52.46 51.65 47.68 44.76 45.19 49.94 48.54 41.00 45.85 49.17 48.51 49.52 51.61 47.88 48.91 52.27 49.66 46.21 42.92 43.18 41.31 43.55 47.43 49.09 47.44 46.83 47.26 44.96 45.26 46.29 50.21 51.62 49.28 46.78 50.16 53.41 53.36 54.19 53.97 53.00 54.92 54.72
52.53 52.61 52.94 52.32 46.12 45.74 44.51 50.96 52.53 50.43 35.75 38.64 43.79 46.76 49.64 51.14 47.31 53.23 53.42 49.75 46.94 43.56 44.06 42.92 46.39 47.09 47.59 46.46 47.88 43.87 49.82 49.08 48.37 46.66 40.55 48.93 37.61 45.82 49.05 49.94 52.31 52.69 50.95 53.62 54.51
52.28 52.13 52.45 51.48 43.97 40.71 46.68 49.92 52.05 49.98 22.77 43.00 44.21 51.99 49.19 47.67 50.52 50.46 53.89 50.84 44.73 45.22 44.92 41.95 43.65 43.99 44.46 46.56 49.05 46.33 50.78 49.28 48.85 46.03 43.21 44.59 39.13 42.83 48.22 48.02 49.52 49.73 51.35 53.89 55.16
52.10 51.92 52.26 48.90 47.09 44.57 47.59 51.12 47.95 33.14 23.62 40.28 47.27 45.45 44.40 47.09 49.05 52.04 50.21 52.05 49.99 46.26 46.47 45.03 48.31 46.70 45.90 48.13 49.98 51.29 49.02 48.23 48.04 46.73 39.68 42.92 42.27 41.35 44.95 48.87 50.09 52.33 54.59 55.26 54.99
51.78 51.72 50.68 49.68 43.47 48.74 48.49 45.65 32.39 26.96 39.97 39.16 43.69 45.03 44.35 43.41 45.44 47.93 46.06 44.66 42.09 39.16 40.18 44.36 44.47 47.41 48.35 44.58 46.97 48.89 44.41 38.26 35.02 36.68 34.02 45.16 41.75 42.09 48.57 50.80 51.18 51.56 53.98 54.46 55.62
51.25 51.30 49.79 49.19 49.19 49.22 45.50 38.88 25.69 33.53 34.26 41.22 40.64 41.95 40.66 44.77 43.92 45.51 44.95 41.89 45.22 43.77 40.28 38.52 37.03 44.24 47.64 45.10 43.33 43.88 44.80 39.10 31.10 32.66 36.59 44.93 39.59 44.61 51.79 52.51 52.26 55.78 55.07 55.20 54.61
50.29 46.56 46.29 48.13 49.30 48.37 40.27 29.76 28.11 32.78 37.93 38.19 38.14 36.81 38.98 42.60 43.44 43.76 43.16 42.86 44.62 45.05 39.25 38.85 39.49 47.49 47.66 48.45 47.12 44.84 43.18 46.68 40.79 42.02 37.84 41.06 45.55 49.94 50.68 50.17 51.78 54.52 54.88 53.48 54.05
45.95 45.52 43.39 48.80 49.45 45.18 34.56 30.32 32.52 38.57 39.60 38.94 32.08 36.28 32.73 35.93 38.45 40.81 42.15 45.79 45.02 47.00 47.19 42.90 38.22 46.26 47.13 48.01 48.10 46.51 48.85 42.46 39.17 33.15 30.57 38.82 41.40 42.54 47.02 47.51 50.68 52.95 53.39 53.38 53.86
45.45 38.43 44.00 48.23 48.80 39.56 29.75 32.24 35.56 40.14 40.50 36.21 33.85 32.98 33.90 33.89 37.19 37.72 41.05 46.46 47.67 47.00 47.15 45.68 42.29 43.48 46.48 43.96 42.90 44.36 44.29 45.05 42.99 39.93 33.59 32.58 37.36 47.81 48.25 48.87 51.79 52.72 54.15 53.51 53.20
42.56 34.10 46.70 48.54 36.31 35.97 31.97 34.75 39.35 38.14 40.31 38.38 38.24 36.54 34.41 36.56 35.55 36.59 39.58 44.63 49.38 48.75 44.23 46.23 42.10 39.53 43.75 47.88 48.40 47.28 45.45 44.68 41.15 37.88 39.70 38.28 39.25 50.41 50.27 52.60 53.98 54.08 54.96 53.63 53.48
39.46 38.70 48.32 46.68 32.48 31.45 34.97 35.97 38.12 37.32 37.66 37.02 36.47 39.07 38.79 35.50 33.45 38.05 41.57 46.68 48.19 45.68 45.48 46.45 42.13 35.97 40.19 44.20 47.09 44.88 48.26 46.88 45.41 42.64 39.79 37.15 38.64 52.11 51.71 51.35 55.12 53.86 54.41 54.88 53.81
39.05 31.77 40.34 42.83 40.76 35.04 33.10 32.87 32.54 38.84 37.76 39.02 37.38 39.35 37.07 34.52 37.40 35.83 38.11 44.69 46.36 47.41 51.57 50.75 42.53 40.39 37.58 41.56 45.26 43.24 47.20 47.66 45.05 38.74 40.62 42.96 43.19 47.98 49.54 49.77 51.39 54.02 54.39 54.70 54.58
39.66 36.14 39.57 30.85 33.60 34.28 34.26 34.18 32.28 31.70 37.24 37.75 35.84 36.65 36.19 32.27 34.20 34.70 39.24 41.05 44.58 48.63 42.74 45.71 40.92 43.62 44.51 46.88 47.20 46.77 47.57 47.69 45.29 45.07 42.81 44.06 45.07 48.22 49.60 49.72 51.27 54.67 54.79 54.52 53.95
36.21 35.93 38.14 35.51 36.60 34.44 34.28 32.74 32.96 34.44 35.74 34.91 34.88 36.93 37.94 35.04 35.96 34.16 37.77 38.19 37.67 40.99 39.15 41.79 41.58 43.60 42.47 46.77 46.47 45.34 48.00 48.35 47.94 47.20 46.23 46.71 45.78 51.33 54.14 52.34 51.98 54.77 55.31 54.84 54.64
43.35 44.33 39.18 35.40 34.08 32.49 33.64 34.63 34.51 36.94 38.21 39.64 38.93 37.08 36.77 38.79 41.61 41.01 40.40 40.40 39.96 37.73 37.25 38.61 41.71 41.23 38.12 44.17 44.47 40.87 47.33 47.57 48.11 48.53 47.30 43.54 46.09 49.79 50.54 52.47 52.11 53.16 55.96 55.38 55.62

GFSSW_sfc_wetblb_024.txt.gz
Wetbulb
56.23 56.21 56.06 56.24 56.39 55.98 55.94 55.98 56.02 56.07 56.18 56.44 56.51 56.48 56.65 57.22 56.80 52.06 48.46 54.07 56.36 65.00 67.03 63.57 63.55 61.41 60.24 57.46 58.43 56.82 46.95 45.12 46.69 47.70 50.45 53.22 49.02 53.87 56.10 54.19 54.94 54.85 55.35 57.63 58.26
56.02 56.25 56.21 56.17 56.62 56.34 55.55 55.47 55.59 55.74 56.06 56.19 56.27 56.24 56.31 57.15 52.64 49.23 56.11 63.07 64.50 66.97 58.85 58.82 58.70 59.05 54.25 55.13 55.77 52.45 46.09 49.41 53.83 53.03 51.23 52.91 50.74 51.17 52.10 52.33 54.06 54.70 57.38 58.31 57.71
54.81 55.09 55.65 56.32 56.35 56.05 56.04 55.47 55.38 55.38 55.36 55.51 55.47 55.79 56.43 55.86 48.57 48.33 64.46 63.08 63.31 66.49 57.19 56.75 59.56 57.59 52.73 53.78 54.33 51.96 48.98 53.87 54.01 54.56 55.10 54.31 53.43 52.99 51.38 49.41 52.26 52.64 55.03 55.78 55.51
54.25 54.34 54.21 54.61 55.39 56.22 56.35 55.62 55.39 55.50 55.40 55.17 55.23 55.66 56.27 52.97 38.05 50.94 68.15 68.53 68.12 63.18 58.57 53.78 52.17 50.12 50.79 50.53 55.47 49.51 54.25 55.08 54.97 55.97 54.65 52.93 55.48 53.15 52.68 51.99 55.09 55.65 56.84 55.87 55.04
52.90 53.66 54.06 53.92 54.03 55.05 55.96 55.85 55.56 55.37 55.19 55.17 55.26 55.56 51.63 46.12 44.44 51.78 66.10 66.06 65.07 59.86 55.98 53.04 49.37 48.62 46.66 51.27 53.60 51.83 53.67 55.80 56.25 55.39 54.64 54.97 53.31 52.67 52.52 54.68 55.09 55.68 55.74 55.73 54.97
51.83 51.61 52.56 53.40 53.70 54.21 55.07 55.22 55.61 55.79 55.26 55.37 55.45 55.65 48.61 37.09 49.21 52.13 52.61 52.00 56.58 57.84 56.22 53.20 50.49 51.37 46.58 48.61 48.95 52.61 53.88 54.55 55.71 55.00 54.64 52.92 53.43 52.81 54.48 55.56 53.73 54.77 53.99 54.42 54.20
52.91 52.46 51.53 51.81 52.84 53.63 54.24 54.19 53.90 54.64 54.35 54.81 55.72 53.61 46.96 43.17 50.49 52.36 49.30 48.66 50.59 56.42 53.46 56.13 54.62 50.82 48.60 46.61 50.28 50.01 47.18 49.99 51.94 52.85 52.00 53.86 50.05 50.96 54.28 54.12 52.63 51.92 53.26 53.61 54.17
53.94 53.57 52.83 52.00 51.62 52.20 53.01 54.02 53.94 53.63 53.78 54.23 55.41 51.68 43.48 51.35 51.79 48.82 48.49 46.91 49.87 51.86 53.66 55.61 53.67 49.35 47.30 48.20 48.69 45.94 44.37 41.63 48.64 51.04 52.48 50.46 46.23 52.08 53.64 52.77 52.20 52.68 53.00 52.24 52.87
54.02 53.87 53.69 53.10 52.70 51.59 51.98 52.82 52.81 53.30 53.32 53.65 50.54 48.07 40.34 52.73 48.33 49.91 51.03 48.09 49.43 50.36 51.03 54.27 52.57 48.16 47.42 44.19 40.79 42.66 39.63 42.04 45.11 50.49 50.85 49.43 47.37 51.71 53.76 52.53 51.82 52.19 53.04 52.80 52.55
53.36 53.20 53.46 53.69 53.15 52.55 51.97 52.18 51.83 51.89 50.98 52.00 51.60 44.25 46.08 45.62 49.81 50.85 50.22 50.15 48.48 50.33 48.35 49.50 49.63 46.62 43.12 41.12 36.87 39.70 39.18 42.90 43.92 48.76 49.24 47.59 47.49 50.83 53.73 52.76 51.56 51.84 52.20 52.44 52.35
52.46 52.70 53.09 53.48 53.40 52.72 49.60 44.37 42.28 44.79 46.42 43.37 43.68 43.19 48.25 50.44 53.64 51.72 52.42 48.73 49.04 46.86 42.50 46.10 43.35 40.10 45.18 45.85 45.37 45.20 42.83 42.38 46.29 49.64 48.49 47.68 48.58 50.76 52.30 50.75 50.36 50.70 51.69 52.30 51.77
52.35 52.20 52.34 52.93 53.20 52.65 47.11 41.08 42.01 43.95 37.70 45.73 47.33 46.85 48.80 50.18 46.23 49.84 53.10 46.66 44.83 40.76 44.26 41.76 39.01 44.71 46.28 45.59 44.09 43.45 42.45 42.86 46.64 49.16 47.16 47.32 48.08 50.79 52.03 51.69 51.96 52.42 51.41 50.76 52.07
52.62 52.62 52.54 52.75 52.84 46.86 42.78 44.15 48.54 46.50 38.84 42.44 45.99 46.38 46.86 48.95 45.38 46.55 50.90 48.20 43.78 40.93 41.86 39.76 43.04 46.20 44.50 45.12 42.87 42.57 42.06 43.59 43.45 46.89 48.01 46.81 45.43 48.49 51.91 53.15 53.09 52.95 52.30 52.64 53.06
52.46 52.44 52.40 52.63 45.94 42.53 40.88 47.54 47.36 49.19 33.25 37.51 42.50 45.98 48.03 48.26 44.80 51.01 51.88 49.39 45.01 40.50 42.02 41.19 45.16 45.28 44.11 42.30 45.03 41.10 46.69 46.73 46.13 43.55 38.26 46.98 37.36 43.87 48.09 48.83 50.22 50.96 49.98 51.48 52.79
52.03 51.79 52.23 52.00 44.01 41.37 42.54 44.69 46.33 44.65 21.09 40.23 41.52 50.70 48.35 44.73 48.03 48.01 52.69 49.01 43.96 42.94 41.70 39.39 42.25 42.15 41.26 42.16 45.03 44.11 47.79 46.65 46.63 44.16 40.07 43.39 37.83 41.56 45.92 46.19 48.58 48.92 50.59 50.42 52.53
51.53 51.56 51.88 48.27 46.30 46.37 47.57 46.48 42.72 30.93 22.32 36.45 42.29 40.61 41.57 44.20 45.19 50.36 48.21 49.90 49.21 44.93 44.03 42.51 46.12 44.54 43.42 45.72 45.93 48.83 46.08 45.47 45.05 42.14 35.53 41.97 39.82 42.50 43.18 47.10 48.02 50.24 50.44 51.92 52.15
51.25 51.31 50.52 49.11 42.04 45.52 46.38 40.81 31.22 25.91 38.10 35.43 36.40 38.76 39.48 40.69 42.04 44.85 44.34 42.40 40.11 37.34 37.48 42.18 42.48 45.30 46.28 42.53 45.69 45.93 41.00 33.81 31.11 33.48 33.85 42.79 40.42 43.95 47.21 49.19 49.39 50.76 51.27 51.89 53.43
50.88 50.73 48.79 48.30 46.35 46.56 42.09 35.72 26.17 31.97 32.91 39.01 37.97 37.97 37.28 38.19 39.42 42.91 42.78 40.08 43.29 42.12 38.49 36.46 35.37 43.18 46.37 43.49 41.08 41.92 41.62 35.48 28.63 29.91 34.73 42.86 38.37 43.54 48.86 50.87 51.65 53.34 52.96 53.17 53.55
49.35 43.80 42.75 44.99 47.62 44.23 39.86 28.97 26.35 31.99 36.59 34.82 36.04 33.44 33.19 35.94 36.71 39.09 40.56 41.14 42.99 43.47 36.85 36.41 37.57 46.14 46.51 46.69 44.93 40.60 37.88 42.76 37.29 38.48 35.00 38.24 42.62 48.00 48.73 50.79 51.99 51.69 52.62 52.48 52.40
44.85 40.37 40.84 45.26 46.08 44.85 34.45 29.11 31.57 36.69 37.15 36.91 29.74 33.86 29.23 32.17 33.10 35.23 37.14 43.91 43.57 45.63 44.27 39.82 35.43 44.39 45.73 46.56 45.89 43.12 45.02 37.55 35.33 30.96 29.18 36.33 39.08 40.46 44.35 48.41 50.80 50.70 50.52 52.15 51.71
41.56 35.88 42.47 45.82 47.33 39.44 27.04 29.00 33.41 39.08 39.57 34.68 32.22 31.25 32.40 32.05 33.83 33.09 35.41 42.19 44.50 45.27 45.97 42.81 38.39 40.61 44.20 41.28 40.45 39.38 40.06 40.00 40.65 38.01 32.60 31.32 37.68 44.60 45.69 47.52 50.61 51.22 51.79 51.64 52.09
37.97 30.43 45.52 47.85 36.42 35.89 31.09 33.78 37.97 36.95 39.46 37.22 36.95 35.52 34.28 35.16 32.37 33.86 35.06 39.53 43.64 44.26 41.01 44.02 37.45 35.75 39.51 43.69 46.14 43.88 40.24 41.68 38.76 35.45 37.50 36.82 37.97 47.57 47.49 49.82 52.48 52.19 52.96 52.36 53.15
36.11 34.75 44.11 46.90 30.33 31.63 34.76 34.46 36.69 35.80 36.26 36.14 35.00 37.24 38.18 34.69 30.78 35.53 38.07 43.29 42.99 42.25 40.89 42.09 39.23 32.37 35.66 39.38 43.78 41.62 42.98 43.45 41.69 39.63 37.03 36.92 37.95 48.29 49.73 51.45 52.61 52.20 52.15 52.67 52.52
36.40 29.57 37.52 40.93 38.03 33.80 32.47 32.25 31.60 38.30 36.28 36.60 35.08 36.54 35.03 34.11 37.16 33.31 34.67 39.47 42.24 42.37 46.08 42.34 38.70 37.98 34.68 39.18 42.30 39.97 42.40 44.14 43.66 37.48 37.80 41.84 40.61 45.54 47.51 50.03 50.86 51.95 52.44 52.52 53.00
34.81 31.26 37.59 29.70 31.45 32.11 30.78 32.21 31.07 31.09 36.42 36.62 32.84 33.21 33.67 31.15 33.69 33.25 36.01 37.94 40.88 43.62 40.54 36.85 34.59 40.45 41.60 43.18 43.73 43.35 43.02 43.87 44.30 43.59 41.85 41.98 42.81 46.05 47.24 50.60 51.98 52.72 52.42 52.25 52.30
29.35 34.72 37.90 33.19 33.86 31.67 31.33 30.38 32.23 33.72 35.03 33.23 32.50 36.07 36.14 32.88 34.14 33.45 35.76 36.46 35.69 39.59 36.88 36.75 32.50 39.99 39.32 42.77 42.98 41.45 44.13 44.31 46.05 45.05 43.68 44.83 43.52 48.85 50.44 52.99 52.93 52.97 52.95 52.52 52.88
39.52 39.63 37.91 33.64 30.35 26.36 28.82 34.05 34.82 36.11 37.77 38.21 37.42 35.26 33.60 36.47 40.27 41.63 41.23 41.01 39.28 36.35 34.98 33.57 34.54 34.32 35.68 41.67 41.33 37.46 42.13 44.09 46.52 47.69 45.37 41.79 44.55 48.04 48.49 48.99 52.27 52.57 53.43 53.43 53.76

GFSSW_sfc_wetblb_027.txt.gz
Wetbulb
55.93 56.01 56.22 56.29 56.51 56.20 56.04 55.77 55.61 55.72 56.08 56.30 56.45 56.27 56.49 56.94 56.47 49.55 45.69 52.91 55.63 64.55 66.16 65.14 62.86 60.43 58.04 55.82 56.82 54.25 45.58 42.95 45.60 46.58 49.04 50.92 49.40 53.70 54.26 52.40 52.90 53.84 54.25 55.63 56.62
54.65 54.80 54.88 55.15 55.81 56.69 56.04 55.72 55.73 55.61 55.74 55.84 55.75 55.82 56.14 56.68 51.77 48.27 55.97 61.90 64.04 66.64 59.82 59.46 57.39 57.74 53.07 53.38 54.46 51.01 44.63 46.72 52.30 50.88 49.87 51.86 50.18 51.85 51.41 51.96 51.49 53.31 56.04 56.53 56.36
53.46 54.01 54.33 54.26 54.39 55.26 55.75 55.94 55.81 55.74 55.80 55.64 55.59 55.72 56.27 55.62 45.89 45.66 62.79 63.70 63.35 65.61 55.66 56.57 59.36 56.11 50.98 52.73 52.27 50.19 48.31 52.17 52.98 53.98 52.69 51.94 53.42 55.61 51.77 48.85 51.34 51.42 53.43 54.10 53.67
52.58 52.35 52.82 53.92 54.19 54.11 54.17 54.41 55.02 55.89 56.02 55.62 55.33 55.56 56.35 51.68 36.95 47.36 66.75 67.49 68.57 61.61 56.18 53.18 52.24 50.83 50.23 49.50 53.38 47.96 52.42 54.23 54.40 55.91 53.67 52.67 54.18 53.25 54.33 54.13 56.60 54.24 55.52 54.24 53.63
53.39 53.39 52.53 51.75 52.54 53.42 53.80 54.03 54.41 54.50 54.85 55.25 55.39 55.73 51.70 45.33 42.00 49.64 62.90 61.10 62.66 58.56 54.09 51.74 48.94 47.60 45.15 48.73 51.30 49.72 51.73 53.86 54.95 54.90 55.18 55.85 52.99 53.19 53.65 56.24 55.98 54.20 55.57 54.53 54.27
53.85 53.58 53.30 53.21 52.50 51.87 52.97 53.93 54.17 54.11 53.92 54.29 54.86 55.48 47.85 36.33 48.00 50.86 50.39 49.55 50.29 55.94 55.08 52.18 50.30 50.83 45.78 46.38 45.44 49.55 50.34 51.50 53.39 53.68 54.71 53.22 53.32 53.06 54.26 55.89 53.93 53.02 54.13 54.67 54.33
54.13 54.01 53.73 53.58 53.46 53.09 52.49 52.66 52.90 53.85 53.76 53.74 54.26 52.16 46.59 44.28 50.85 49.85 47.89 46.58 48.16 50.08 53.72 55.06 53.70 50.26 46.96 44.56 47.37 46.86 44.45 46.86 48.27 50.99 50.84 53.99 48.88 50.13 54.46 54.37 52.20 51.34 53.20 54.28 54.53
53.33 53.47 53.49 53.25 53.46 53.50 53.20 53.46 52.61 51.69 52.58 53.74 54.15 50.23 42.72 51.91 53.00 51.06 51.27 48.84 48.54 47.09 50.66 54.24 55.15 49.46 46.04 46.20 46.54 43.65 42.34 39.37 46.89 49.74 50.45 49.60 44.10 51.26 53.93 52.10 51.77 51.22 51.95 52.73 53.42
53.21 52.98 53.10 52.67 52.98 53.36 53.72 53.35 53.08 52.97 52.12 52.79 48.40 46.95 40.51 52.44 48.69 51.13 49.99 46.15 47.43 47.47 48.99 53.22 50.82 46.70 45.44 42.20 38.15 39.09 37.28 39.09 42.38 48.56 47.63 47.80 45.44 50.42 52.76 51.32 50.68 51.18 50.96 52.08 52.36
52.94 52.73 52.75 52.56 52.62 53.08 53.11 52.82 52.10 50.85 50.02 50.65 49.13 42.88 45.15 44.01 48.44 50.01 49.83 48.69 46.72 47.10 46.22 45.50 46.18 42.72 40.39 38.06 34.27 37.11 36.31 39.54 40.93 45.86 46.32 45.62 45.65 49.81 51.33 51.33 50.56 51.22 51.69 51.82 51.13
52.38 52.65 52.42 52.75 52.79 52.81 51.18 43.67 39.43 41.76 44.78 41.13 41.04 40.91 45.90 49.55 51.89 49.97 49.35 46.56 46.80 44.62 38.86 42.86 39.88 39.98 43.38 44.90 44.43 42.12 40.66 40.00 44.16 47.17 45.65 44.72 45.40 47.49 50.54 49.81 50.03 49.03 49.41 50.30 50.38
52.12 52.23 52.04 52.40 52.21 52.82 47.17 38.77 42.44 43.84 37.53 44.28 44.04 45.47 48.00 49.06 43.76 48.11 49.77 43.48 42.57 37.29 41.31 40.21 37.62 44.17 47.89 46.99 44.41 42.81 40.17 40.37 44.82 47.08 45.23 44.13 44.36 47.79 49.76 49.77 50.93 51.53 49.85 49.48 50.66
52.37 52.13 51.86 52.28 52.35 46.76 40.76 42.89 47.23 46.50 36.76 40.66 44.04 43.36 44.82 47.22 43.30 44.45 49.20 46.64 42.23 38.97 39.23 38.14 41.51 45.51 45.76 43.79 43.14 42.79 40.40 41.11 41.17 45.64 45.88 43.62 42.58 45.05 49.37 50.78 51.73 51.86 51.77 51.39 51.28
51.90 51.97 52.01 52.04 45.94 42.32 41.65 44.37 45.62 46.85 32.52 35.23 40.72 43.23 45.40 45.99 41.69 47.90 50.17 48.00 43.69 39.02 39.65 38.56 42.76 42.97 42.63 41.78 42.25 38.26 44.15 43.66 42.84 40.59 36.38 43.77 33.67 41.82 45.77 47.84 49.12 50.69 49.64 49.45 50.85
51.52 51.40 51.70 51.45 45.66 42.73 43.86 45.71 47.90 44.29 18.52 38.23 40.78 49.26 46.92 42.25 45.30 45.41 49.68 46.77 42.76 41.46 40.94 37.77 40.51 40.62 40.26 41.06 43.36 41.17 45.88 43.73 43.17 40.41 38.17 40.82 36.14 39.59 44.04 44.94 47.12 48.13 48.98 49.11 50.29
51.41 51.45 51.49 47.99 46.95 45.89 46.59 45.82 42.38 31.14 21.44 35.14 40.30 38.56 39.59 42.46 43.19 46.44 46.27 47.56 47.30 42.75 41.70 40.15 44.69 43.63 42.55 45.14 45.13 46.39 42.19 42.01 41.93 38.47 33.72 40.00 37.79 37.83 42.09 45.14 46.75 48.88 48.74 49.88 50.52
51.31 51.10 49.39 48.69 40.74 44.12 45.16 39.98 30.45 24.16 36.78 33.29 34.03 37.29 37.21 36.07 40.35 41.84 41.59 40.32 38.26 35.04 35.82 38.96 39.92 43.30 45.10 40.85 42.54 42.50 36.29 30.02 28.53 30.14 31.12 41.07 37.34 41.42 45.50 47.60 48.70 48.77 49.02 49.90 51.45
50.94 50.14 48.50 48.27 45.40 45.53 41.23 34.18 22.56 31.02 32.22 38.04 36.07 36.17 33.29 35.75 35.19 37.94 39.01 37.96 42.15 40.16 36.88 34.56 32.42 40.65 44.50 42.09 39.63 39.56 38.66 31.61 26.18 28.18 33.00 40.53 35.77 40.91 47.92 49.87 50.32 50.00 49.94 50.97 51.12
49.34 42.17 41.37 43.68 46.69 44.71 39.61 26.42 24.82 30.88 34.95 33.22 34.67 31.94 32.43 34.77 35.14 35.74 35.35 37.49 40.98 42.08 34.86 35.09 35.60 43.99 44.77 44.55 43.15 39.13 37.31 42.17 35.16 35.64 32.33 36.17 40.60 45.77 47.68 48.83 49.44 49.58 50.23 50.00 51.19
44.22 41.59 41.78 44.59 45.82 44.74 34.66 26.67 30.00 35.71 36.10 35.94 28.58 32.57 27.93 31.59 32.07 31.77 33.30 39.23 39.55 43.47 41.96 38.18 32.91 42.11 44.11 45.15 43.86 39.87 41.86 34.91 33.53 27.89 28.27 34.48 36.76 39.47 43.39 46.66 48.41 48.66 48.70 49.54 50.35
39.92 34.57 39.25 47.05 46.38 38.43 28.52 27.13 32.52 36.99 37.03 33.88 31.41 30.26 31.51 31.20 32.61 31.55 33.39 39.30 39.89 40.06 42.43 38.74 36.01 37.93 42.33 39.95 39.10 38.00 37.55 36.14 37.40 34.72 29.92 28.42 34.67 43.44 45.13 47.49 48.30 48.54 49.61 49.58 50.32
36.40 28.40 40.72 48.97 35.51 34.05 29.82 32.90 37.41 35.48 38.02 36.09 35.87 33.93 33.18 34.25 32.47 31.96 32.63 37.02 41.95 41.46 36.39 39.37 35.44 32.94 36.87 41.99 45.20 43.04 39.87 37.87 35.58 31.94 35.13 33.91 36.56 45.82 46.90 48.95 50.46 50.50 50.23 50.09 50.91
35.94 36.26 42.30 45.94 30.07 31.52 35.00 34.11 35.54 34.71 34.90 34.77 34.07 35.24 36.07 33.36 29.08 34.06 35.76 41.57 41.73 39.41 36.49 39.31 34.36 31.66 32.45 37.69 40.53 40.24 40.66 41.43 37.32 36.67 34.40 35.10 37.56 45.59 46.12 46.16 50.90 49.19 49.91 50.58 50.34
36.59 29.88 34.57 36.88 34.91 33.40 31.74 31.09 30.94 37.28 35.32 35.66 33.72 34.63 32.41 31.62 35.08 32.57 34.44 38.32 40.62 39.80 44.96 39.60 34.63 35.43 32.24 35.44 39.32 37.50 40.13 39.47 39.51 34.57 36.31 39.02 38.64 43.60 45.74 47.68 49.05 49.42 50.19 50.44 51.00
32.59 29.34 36.35 28.05 30.97 31.79 30.48 31.30 30.38 31.28 35.52 35.63 32.29 32.17 30.93 28.87 32.15 32.13 35.56 37.03 39.41 41.24 40.22 34.87 29.71 36.17 39.74 40.94 40.61 40.81 40.02 40.68 39.37 39.79 37.58 40.36 40.78 44.07 46.32 47.84 49.87 50.78 50.02 50.12 50.48
30.88 35.05 35.38 32.57 33.52 31.03 30.11 31.43 32.21 34.10 35.41 33.29 31.88 34.33 34.31 31.70 33.82 31.78 34.55 35.43 35.28 38.08 37.52 35.04 28.84 35.20 36.86 41.24 40.83 39.25 41.39 41.40 41.51 41.77 42.14 42.21 41.10 46.85 48.83 49.78 50.81 51.17 51.23 50.93 51.33
40.21 40.47 37.43 33.58 32.19 26.07 27.58 32.11 32.67 35.78 37.01 37.74 36.09 33.43 33.13 35.29 38.87 38.83 39.86 40.00 39.52 36.60 35.38 33.44 31.58 30.35 30.84 40.35 38.73 34.76 39.73 40.75 41.58 44.50 44.18 40.76 44.54 45.93 45.70 50.38 50.88 50.90 51.98 51.98 52.57

GFSSW_sfc_wetblb_030.txt.gz
Wetbulb
54.49 54.79 54.78 54.72 54.68 54.90 55.66 56.29 56.30 56.14 56.25 56.26 56.25 56.20 56.21 56.64 56.28 49.39 45.76 52.20 55.49 64.90 66.36 63.90 60.56 59.97 57.53 54.92 55.54 52.45 44.68 42.01 45.60 46.59 47.72 49.10 48.38 51.80 53.53 51.84 51.72 54.03 52.81 54.50 55.55
53.07 52.97 53.18 54.17 54.49 54.45 54.52 54.82 55.36 55.59 55.94 56.23 56.15 56.00 56.01 56.78 51.50 47.34 54.88 61.42 63.98 66.42 59.01 58.97 57.28 57.28 52.47 52.76 53.27 50.20 44.02 45.20 50.17 49.78 49.15 49.55 49.81 51.21 51.81 52.12 53.04 52.36 54.24 55.69 54.67
53.76 53.52 53.28 52.44 52.58 53.21 53.88 54.07 54.31 54.65 55.20 55.84 55.89 55.84 55.86 55.39 44.47 43.62 61.41 60.85 64.06 65.03 55.47 59.93 58.55 55.41 50.39 50.43 51.44 49.63 47.02 51.26 50.74 52.62 51.83 51.27 52.34 53.38 50.85 49.65 52.50 51.37 54.68 53.36 53.34
54.31 54.08 53.77 53.77 53.51 52.61 52.27 52.75 54.08 54.43 54.54 54.49 54.80 55.43 55.97 50.75 34.88 49.49 65.94 67.05 68.07 61.24 52.81 52.42 55.01 50.84 48.11 48.03 52.23 46.40 51.05 52.93 52.16 53.10 51.18 51.63 53.43 53.26 53.68 53.67 56.48 56.64 55.11 53.42 52.58
53.56 53.73 53.94 53.92 53.81 53.65 53.25 52.82 52.62 53.02 53.81 53.92 54.07 54.79 51.40 43.38 41.22 48.18 60.65 56.86 59.13 57.60 51.47 50.31 49.15 51.10 47.35 48.58 50.15 48.30 50.60 52.15 53.10 52.38 52.19 54.56 52.53 52.99 53.20 56.96 57.64 56.26 53.43 53.69 53.15
53.24 53.14 52.94 53.23 53.36 53.46 53.89 53.04 53.17 52.66 52.30 53.23 53.65 53.85 47.65 39.84 49.66 47.96 51.96 48.49 48.67 53.85 52.73 50.44 49.00 49.80 44.88 44.64 45.98 48.69 50.53 50.80 50.38 51.50 52.99 51.90 51.76 51.36 53.68 56.77 54.63 54.02 52.67 53.33 53.34
53.31 52.94 52.82 52.64 52.83 52.92 53.18 53.17 52.94 53.32 53.04 52.51 52.97 50.70 45.08 42.79 52.23 53.06 51.91 47.86 46.81 47.91 50.37 53.51 52.76 49.16 46.57 43.26 45.80 45.27 41.72 44.88 46.25 47.86 47.66 51.06 47.10 47.97 53.59 53.97 52.57 52.58 52.36 52.83 53.71
52.92 53.27 52.67 52.55 52.60 52.83 52.79 53.11 53.19 53.20 53.14 53.46 52.50 48.41 40.23 50.65 52.26 50.55 51.46 50.05 51.88 49.52 48.25 51.92 54.30 48.33 44.49 45.56 45.11 41.79 40.66 37.79 43.96 47.54 47.59 48.31 41.38 48.35 52.33 50.92 51.22 51.64 51.90 51.30 52.54
52.28 52.84 52.69 52.44 52.41 52.66 52.92 52.82 52.88 53.30 53.24 52.95 47.42 44.51 37.69 51.26 47.89 51.01 50.80 47.49 48.99 48.93 46.22 49.12 51.34 46.38 43.96 41.32 37.36 37.95 35.92 36.85 39.94 46.09 45.42 45.37 42.45 48.40 50.44 50.17 50.08 51.45 51.25 51.02 51.77
52.22 52.53 52.69 52.24 52.24 52.53 52.68 52.19 51.59 50.11 49.46 49.67 47.84 40.00 42.48 41.30 48.51 49.85 50.95 49.61 46.31 44.38 43.74 43.22 44.40 41.39 38.94 37.76 33.02 34.92 35.04 38.12 38.54 43.59 42.52 42.08 42.35 46.70 49.37 49.23 49.46 50.02 50.95 50.98 50.60
52.15 52.44 52.43 52.43 51.88 52.10 49.98 42.84 40.48 39.74 42.73 38.29 39.36 39.82 42.48 48.41 51.03 48.99 49.06 47.31 45.79 41.95 36.64 40.42 37.50 37.59 40.21 42.00 41.26 41.04 38.57 37.62 42.64 45.44 42.71 41.50 42.53 46.12 48.34 47.59 47.71 48.32 49.00 49.61 49.26
51.75 51.76 51.63 52.01 51.72 51.98 47.81 37.59 42.00 42.10 35.33 42.68 42.96 43.34 45.47 47.27 41.61 45.68 48.44 42.86 40.95 37.36 39.38 37.63 35.78 41.22 44.18 43.88 42.25 41.02 38.86 38.83 43.29 45.04 42.94 42.53 42.29 45.97 47.28 47.38 48.34 49.48 50.05 49.72 48.79
51.62 51.62 51.61 51.62 51.65 44.97 39.60 41.33 45.23 45.38 35.02 39.05 42.77 42.00 42.51 44.86 40.76 42.05 47.42 44.13 40.37 37.06 37.65 36.24 39.21 43.28 43.84 42.95 41.74 41.39 39.82 40.39 40.41 42.87 43.57 41.99 39.98 43.31 47.32 47.76 49.01 50.39 50.84 50.38 50.01
51.35 51.71 51.75 51.65 44.71 41.48 41.67 43.81 45.53 47.26 30.76 34.06 38.60 41.53 43.29 42.97 39.44 46.39 48.33 44.65 42.10 36.65 37.89 36.98 41.62 41.53 41.65 41.52 43.11 38.01 44.73 44.25 42.40 38.45 32.77 41.26 31.44 40.77 44.59 45.85 47.65 48.63 47.90 49.28 49.67
51.21 51.49 51.75 51.18 44.80 42.10 43.17 45.17 45.62 41.07 17.57 36.01 39.87 47.51 44.56 39.87 41.76 42.44 47.51 44.88 40.60 39.54 38.19 35.30 37.84 38.35 38.89 41.35 44.75 40.74 45.64 44.13 42.04 37.02 33.93 36.74 33.92 38.45 42.34 43.53 45.86 48.03 48.60 47.91 49.20
51.48 51.26 50.86 47.63 46.87 44.45 45.50 44.87 40.71 29.95 19.96 33.54 39.22 37.30 36.49 41.18 41.66 44.35 42.31 44.57 45.97 40.46 40.14 38.98 43.86 41.48 41.34 43.73 45.38 45.49 42.30 40.14 38.49 35.53 29.01 36.65 36.08 35.73 39.88 43.67 46.14 47.58 48.78 49.08 50.03
51.34 51.06 49.17 47.67 41.01 43.21 43.70 39.44 28.58 21.41 34.97 31.70 32.84 36.64 36.26 35.06 38.15 40.35 39.59 36.24 36.04 33.22 33.26 37.16 38.21 40.79 42.88 39.34 42.06 41.68 35.70 27.34 25.83 26.67 27.55 38.42 35.69 38.93 43.51 46.10 47.84 48.17 47.86 48.80 50.74
50.22 49.88 46.38 47.16 44.00 45.03 40.19 32.00 21.81 28.78 29.65 36.58 34.90 35.89 32.84 35.61 34.81 35.97 36.57 34.50 38.28 36.95 35.41 33.32 30.40 39.30 42.64 39.80 37.42 38.57 36.65 29.84 24.69 25.95 31.58 38.57 33.79 38.63 46.37 49.58 49.35 48.90 48.68 49.24 49.84
48.46 41.53 40.83 44.96 45.18 45.87 38.57 24.41 22.78 29.48 33.72 32.84 33.63 30.64 31.01 34.07 33.76 34.06 32.87 35.29 37.99 39.61 32.16 32.92 34.26 42.20 43.47 43.69 42.98 37.13 35.14 38.31 33.08 34.97 30.82 34.47 38.14 43.74 46.45 46.88 47.91 48.06 48.86 48.45 49.48
42.57 41.33 38.11 44.35 44.98 43.97 34.09 25.64 28.49 34.64 34.66 33.83 27.35 31.48 26.93 30.05 31.10 31.74 31.96 37.84 37.02 39.65 39.64 36.15 31.25 41.01 42.25 43.78 43.23 40.24 41.71 32.81 32.13 27.24 25.84 32.19 34.75 37.67 42.93 45.92 47.94 47.68 47.64 48.10 49.34
36.72 32.88 38.29 47.02 46.11 38.29 23.54 26.29 31.36 36.57 37.00 31.75 30.50 29.11 30.25 29.90 32.61 30.56 31.07 35.87 38.38 37.54 39.75 36.83 33.78 35.60 40.44 38.54 36.76 35.20 36.30 34.15 35.26 32.01 27.84 27.30 33.32 41.98 44.50 45.96 47.23 47.60 48.21 48.32 49.47
37.54 25.99 39.57 48.23 35.52 34.93 26.22 32.38 36.60 34.59 36.73 34.49 34.39 32.45 31.10 32.51 31.38 31.05 30.97 33.53 39.87 39.16 33.01 36.80 32.85 31.52 36.05 39.84 43.65 41.52 36.29 35.61 34.09 29.11 32.60 32.70 33.90 44.24 45.81 46.51 48.05 48.20 48.80 48.71 49.77
35.41 32.97 42.04 42.89 29.33 27.55 32.82 33.59 35.00 33.82 34.26 33.52 32.79 35.07 34.12 31.18 28.32 32.82 34.36 40.05 38.83 37.80 34.30 37.98 31.82 28.07 31.16 35.64 38.90 38.84 38.60 38.85 35.39 33.56 33.78 29.68 32.81 45.00 45.88 46.63 48.11 47.71 48.69 49.25 49.92
33.57 27.25 32.03 37.75 35.10 33.40 30.38 29.44 30.26 36.77 34.93 34.58 32.76 33.31 30.61 29.96 33.48 30.97 32.98 37.44 39.49 38.52 41.99 40.71 31.71 31.27 28.95 33.13 36.23 36.15 38.70 39.30 35.07 29.65 33.20 36.89 36.86 42.82 45.35 45.86 46.46 48.09 48.68 48.58 50.11
31.59 26.71 33.63 29.67 29.47 31.19 32.49 30.86 30.07 31.20 35.91 35.91 31.82 32.11 31.52 28.27 31.10 31.28 34.93 36.37 39.17 39.77 39.42 37.07 28.13 33.05 34.58 37.71 38.77 37.58 38.89 39.25 37.10 37.77 34.07 37.43 40.18 42.54 45.39 46.25 47.41 48.56 48.46 48.90 49.55
28.13 34.70 36.23 32.42 33.15 31.49 29.10 30.36 30.44 31.62 34.40 33.07 32.19 33.78 33.16 29.34 31.61 30.51 34.26 35.16 34.51 37.70 37.15 37.67 27.92 31.77 30.65 38.00 38.97 37.60 38.51 39.88 39.80 39.49 38.54 38.87 38.35 44.86 47.05 48.17 49.09 49.76 49.74 49.83 50.27
37.38 41.87 37.30 33.74 31.78 29.17 26.01 30.73 31.62 33.12 34.30 36.19 35.69 33.64 31.52 33.18 36.67 37.52 38.43 37.66 37.58 35.83 35.06 34.74 30.64 27.84 25.33 33.06 34.94 32.78 38.62 38.75 39.46 41.19 40.38 37.47 41.92 44.14 45.55 47.81 48.65 49.17 50.93 51.00 51.44

GFSSW_sfc_wetblb_033.txt.gz
Wetbulb
53.85 53.91 53.45 53.08 53.08 53.91 54.50 54.71 54.67 55.06 55.50 55.82 56.63 56.53 56.51 56.73 56.43 51.43 46.00 53.28 56.01 62.67 64.73 62.40 59.76 60.73 61.03 58.62 59.44 57.60 51.26 47.47 48.42 49.33 51.39 56.08 55.30 56.75 57.83 57.59 57.62 58.71 58.48 59.98 60.20
54.04 53.75 53.58 53.80 53.74 52.80 52.70 53.01 53.81 54.16 54.57 55.15 55.62 55.75 56.02 56.67 52.21 48.73 55.61 60.42 63.28 66.17 61.21 57.18 55.94 58.80 56.62 56.79 58.04 55.57 51.04 49.98 53.17 53.64 53.40 54.70 55.23 56.11 56.04 56.66 57.40 58.24 59.62 59.51 59.61
54.22 54.29 54.32 54.64 54.39 54.00 53.93 53.42 52.92 53.22 53.58 54.29 54.69 54.77 55.51 55.55 45.67 45.20 63.86 62.96 61.95 64.65 57.76 57.17 58.02 58.20 55.08 56.80 56.20 55.63 51.36 54.26 54.36 55.30 55.73 55.17 55.38 57.40 55.37 54.27 56.95 57.17 59.34 61.14 60.50
53.61 53.44 53.32 53.67 53.91 53.96 54.19 53.69 53.35 53.72 53.19 53.19 54.04 54.17 55.39 51.94 39.65 50.89 61.48 59.99 66.48 60.08 54.24 51.90 56.96 54.24 52.88 52.64 55.98 52.12 54.92 55.73 56.12 56.67 55.38 54.48 56.59 55.43 56.63 56.89 59.41 60.06 60.64 60.58 59.97
53.16 53.56 53.29 52.62 52.76 52.80 53.10 53.55 53.03 53.12 53.35 53.22 52.90 53.71 51.31 45.52 45.25 50.53 57.49 56.32 56.71 58.84 51.93 51.32 53.75 52.75 50.07 52.53 53.85 52.66 54.18 55.99 57.02 56.97 56.49 56.75 55.04 55.14 55.50 58.26 59.79 60.41 60.41 59.45 59.55
52.51 52.65 53.07 52.60 52.27 52.35 52.25 53.09 53.34 52.68 52.97 53.04 53.03 52.91 46.83 37.71 52.17 52.96 53.89 52.82 49.25 55.22 53.46 51.30 50.15 54.39 52.11 52.17 51.72 53.99 53.68 54.18 55.61 55.56 55.88 54.18 54.29 54.45 54.97 57.53 57.07 57.51 58.17 58.94 59.37
51.94 52.00 52.41 52.85 52.39 52.15 52.30 52.31 52.80 53.03 53.27 53.72 53.05 50.28 44.24 41.59 52.28 53.94 52.82 51.24 51.02 49.53 47.69 52.27 53.24 51.20 51.40 48.80 52.04 51.64 48.92 51.13 51.42 52.91 51.65 52.13 48.39 49.24 53.44 54.99 55.09 56.20 56.96 57.99 59.30
51.04 52.47 52.58 52.41 52.65 52.51 52.53 52.48 52.70 52.87 53.70 53.71 53.68 49.12 40.28 50.32 52.74 51.06 52.29 51.14 52.73 52.67 50.52 50.10 55.33 51.88 50.16 50.52 48.50 47.03 47.01 43.98 49.22 49.54 49.73 49.61 44.69 50.19 53.55 53.77 53.77 55.04 56.37 57.30 58.80
52.52 52.59 52.35 52.31 52.52 52.62 52.56 52.43 52.33 52.70 52.87 53.00 49.46 44.98 39.08 50.87 46.90 51.40 52.04 48.52 50.97 51.77 51.52 49.77 51.12 50.56 49.28 46.20 44.65 45.60 42.29 42.87 45.07 48.49 48.54 48.94 46.24 50.63 53.10 52.73 52.81 54.16 55.25 56.15 57.65
52.14 52.51 52.53 52.14 52.10 52.33 52.50 51.76 51.12 50.68 50.39 50.68 48.48 40.45 42.89 42.57 48.83 50.55 53.01 51.07 48.38 48.13 46.63 46.23 47.12 45.11 45.71 44.39 38.69 40.65 40.33 42.92 42.83 47.50 47.15 46.51 46.69 49.67 51.99 52.48 52.85 54.32 55.47 56.38 57.23
51.54 52.01 52.35 52.41 51.80 51.97 50.43 46.70 45.08 43.11 44.08 41.20 41.10 41.16 43.05 47.40 50.24 47.68 50.37 48.95 48.10 45.51 41.55 44.11 41.02 40.52 42.46 44.84 45.99 46.42 44.34 43.94 45.99 47.30 46.20 46.91 47.63 49.63 52.17 52.53 52.68 53.82 54.82 56.14 57.44
51.45 51.38 51.74 52.20 51.83 51.09 47.34 41.97 42.23 42.74 36.78 43.55 43.05 43.70 46.10 47.72 41.74 45.19 49.27 44.39 42.86 39.31 43.31 40.12 38.55 44.02 46.32 45.71 43.49 43.04 42.13 42.57 45.22 47.31 46.67 46.92 46.54 49.93 51.14 51.34 52.93 53.66 54.45 55.94 57.67
52.17 51.58 51.56 52.00 51.76 46.91 44.66 43.67 48.07 47.62 37.35 40.21 43.32 42.62 43.57 45.79 41.01 42.57 46.97 44.98 41.68 39.64 40.43 39.81 42.03 44.12 43.63 43.85 41.69 42.05 41.63 42.20 42.32 46.44 47.82 46.41 45.14 47.53 50.83 52.28 52.80 54.74 56.10 57.17 57.67
52.24 52.00 51.88 51.52 46.32 45.64 43.30 47.11 48.63 47.57 32.43 34.72 38.93 42.64 44.69 44.89 39.96 47.02 47.22 45.27 42.54 39.56 40.63 40.94 44.50 42.48 41.84 41.47 43.59 39.94 44.97 44.03 43.24 42.08 40.04 46.51 38.60 45.93 48.07 48.78 52.20 54.76 56.46 56.91 56.10
51.65 51.51 51.79 50.84 46.01 42.82 45.12 48.56 48.91 44.40 19.58 36.57 40.75 48.89 45.89 41.82 43.30 44.41 48.38 45.14 40.65 40.80 41.40 38.88 40.40 40.50 40.19 41.50 44.78 42.49 46.81 44.65 43.84 42.67 42.57 42.93 39.65 44.44 48.06 46.67 49.34 52.71 56.12 56.78 56.27
51.38 50.78 50.77 47.57 46.59 47.03 48.64 48.35 45.30 30.88 18.90 33.71 39.71 38.71 39.12 41.18 41.55 43.97 43.27 45.74 46.10 42.77 42.43 42.36 44.58 43.02 42.94 44.53 45.51 47.17 45.39 45.17 44.97 43.28 36.48 41.71 40.37 41.76 45.05 46.88 49.96 53.38 55.80 55.32 56.24
50.86 50.20 48.87 47.98 42.32 47.82 48.33 44.09 29.43 22.32 34.52 32.38 34.01 37.58 37.04 36.64 38.16 39.29 39.57 37.70 37.42 35.13 36.44 40.30 40.65 43.42 44.16 42.15 45.62 45.79 42.97 36.37 34.48 35.00 35.44 43.50 40.42 41.78 48.34 50.60 52.16 53.33 55.48 55.76 56.77
50.33 48.18 46.45 47.65 48.45 48.14 44.88 35.35 21.51 28.48 30.40 37.23 35.89 36.42 33.42 35.85 34.77 35.65 36.30 36.85 39.41 40.47 39.22 35.96 33.88 41.11 43.49 42.21 41.62 42.98 43.17 38.33 32.04 34.16 36.75 42.35 37.51 41.59 50.49 52.10 53.59 54.70 56.13 56.21 56.42
47.64 46.11 45.29 47.25 47.05 47.24 39.60 25.79 26.41 30.47 33.72 32.12 34.31 31.17 31.48 34.44 34.25 33.40 34.27 36.49 39.13 39.65 34.68 36.86 37.33 44.16 43.49 44.91 44.46 42.16 39.85 45.13 40.24 40.88 38.33 40.54 43.60 49.15 51.56 52.14 53.19 53.59 54.77 55.66 56.40
43.12 42.50 43.17 47.85 48.60 44.52 34.41 27.46 30.34 35.52 35.53 34.52 28.13 32.25 28.02 31.14 31.62 31.97 31.21 36.31 36.19 40.32 41.99 39.68 35.71 43.13 43.50 44.50 45.76 44.46 46.11 37.69 40.11 33.21 31.55 37.94 41.06 42.50 48.57 50.44 53.25 53.94 54.68 55.29 56.24
42.50 38.78 43.71 48.15 47.35 39.80 29.39 29.95 32.87 37.50 37.53 32.80 31.03 30.30 30.51 30.00 33.07 31.86 31.33 35.11 37.93 38.30 41.03 40.94 39.68 40.40 43.25 40.79 40.44 41.23 40.87 42.11 42.37 40.49 35.08 33.45 39.04 51.04 51.16 52.82 53.70 55.56 56.31 55.31 55.99
41.51 34.55 44.29 48.50 35.42 35.62 31.46 33.51 36.73 35.75 38.12 36.00 35.67 33.64 31.92 32.69 31.56 32.01 31.85 34.50 39.44 38.22 35.39 39.55 39.00 37.10 39.86 44.64 45.86 43.89 42.65 42.82 37.86 36.15 39.37 39.62 39.74 49.98 52.88 52.99 54.58 55.57 55.36 55.93 56.98
36.25 37.10 44.71 45.00 29.94 31.04 33.75 33.40 35.64 35.00 35.17 34.77 33.44 35.22 36.18 32.34 28.50 32.78 34.78 39.65 40.22 37.28 34.65 38.44 37.57 34.11 37.21 41.34 44.02 42.06 43.27 44.13 44.29 43.66 38.63 36.43 39.84 50.14 51.39 52.53 54.20 55.41 54.89 55.05 56.35
38.65 32.54 38.52 41.18 37.78 32.62 29.34 31.11 31.55 37.63 36.34 36.65 35.33 36.50 34.21 32.56 34.86 31.37 33.23 37.47 40.78 39.06 41.04 39.86 36.41 35.69 35.19 37.66 41.87 39.60 41.44 43.19 42.92 39.29 39.37 39.54 41.66 47.75 50.29 51.19 53.32 54.64 55.80 55.59 56.57
38.28 34.25 37.11 29.95 32.63 31.61 31.78 31.37 30.97 31.17 36.10 37.53 34.45 33.92 33.84 30.23 31.82 31.67 34.94 36.88 39.77 41.10 39.83 38.08 32.17 35.54 37.35 38.06 39.19 40.41 41.17 41.54 40.57 41.99 39.10 40.99 41.89 46.60 49.97 50.48 53.93 55.63 55.70 55.17 56.14
37.33 36.36 38.47 34.68 34.30 31.52 31.18 31.26 31.67 32.87 33.10 32.41 33.04 34.83 34.90 31.63 33.18 31.14 34.16 35.54 35.58 38.38 37.89 38.48 32.61 35.19 35.14 39.91 40.07 39.02 41.75 42.48 42.24 42.39 42.47 43.40 43.56 49.96 51.31 53.17 53.85 55.07 54.87 55.36 56.35
41.19 43.57 38.76 34.54 32.60 30.92 31.41 31.84 32.10 33.95 35.79 36.74 35.75 34.72 33.42 35.82 38.76 39.31 39.10 39.05 38.45 36.17 36.43 36.06 34.64 33.17 33.88 37.57 38.30 36.37 41.28 42.57 43.06 44.10 43.77 41.04 45.25 48.97 49.69 51.68 53.81 56.19 55.93 56.47 57.19

GFSSW_sfc_wetblb_036.txt.gz
Wetbulb
55.17 54.93 54.74 54.51 54.76 54.54 54.20 53.74 53.49 53.83 54.47 55.02 55.53 55.82 56.02 56.40 56.66 56.43 50.40 55.07 58.58 64.18 62.94 63.22 61.91 61.94 63.05 60.88 61.89 61.34 53.79 50.98 52.31 52.63 54.30 58.10 57.18 59.59 60.99 59.59 60.15 61.47 61.48 62.85 64.02
54.16 54.32 53.90 54.41 54.66 54.79 54.82 54.61 54.15 53.85 53.78 53.85 54.50 55.20 55.38 55.94 55.26 52.92 59.77 60.64 63.39 64.42 54.55 58.71 56.89 58.87 59.33 59.75 60.14 57.87 53.68 53.08 56.41 56.76 55.83 57.43 57.66 58.07 57.93 58.29 58.62 59.68 62.55 63.33 64.39
54.09 54.06 53.43 53.70 53.71 53.80 53.95 54.23 54.02 53.91 54.35 53.79 53.65 54.42 54.82 55.52 51.19 50.23 59.77 62.15 62.90 62.87 54.15 58.08 56.98 58.12 56.47 58.56 58.88 58.25 54.13 57.21 57.76 58.30 58.48 57.55 57.66 59.15 57.47 56.47 58.67 58.31 60.57 62.52 63.25
53.39 53.08 53.65 53.23 53.07 53.08 52.88 53.15 53.42 53.77 53.62 53.92 53.93 53.61 54.66 54.24 43.59 57.78 58.89 60.16 62.67 65.07 55.13 55.45 55.13 53.36 53.22 53.45 58.35 55.40 57.87 58.25 58.48 59.23 58.42 57.28 59.13 57.72 58.46 58.75 60.96 61.08 61.61 61.79 62.09
52.24 52.70 52.88 53.35 53.01 52.85 53.08 52.98 52.87 52.95 53.29 53.13 53.47 53.27 52.69 48.39 48.48 55.08 58.51 61.04 55.86 60.40 54.68 54.02 53.06 54.06 53.17 54.46 55.36 55.57 57.13 58.40 59.15 59.18 58.91 59.15 57.74 57.70 58.16 60.15 61.29 61.04 60.61 60.43 61.18
51.27 51.45 52.30 53.00 53.11 52.91 53.27 53.37 53.31 53.28 53.10 53.19 53.63 53.30 49.87 41.82 53.22 55.81 55.95 55.60 54.59 54.96 57.24 55.41 53.18 55.82 56.17 55.42 54.49 55.96 56.08 56.68 58.35 58.63 59.02 56.97 57.04 57.83 58.40 60.16 59.07 58.65 58.54 59.29 59.47
51.83 52.25 52.72 52.87 52.87 52.87 52.97 53.22 53.25 53.44 53.35 53.92 53.65 52.55 48.22 45.88 53.48 54.70 54.36 53.89 54.91 52.60 52.68 55.97 55.59 54.12 56.43 53.84 56.59 55.52 52.91 54.83 55.99 56.89 56.39 57.88 54.32 54.55 57.47 57.71 57.00 56.97 58.33 58.50 58.57
52.53 52.94 52.55 52.68 52.83 52.73 52.97 52.70 52.77 52.93 53.57 54.06 54.01 51.09 44.24 52.44 54.48 52.59 54.05 53.17 54.74 54.95 53.12 53.13 54.78 53.46 52.93 54.79 52.59 51.42 52.70 49.03 54.07 55.14 55.45 54.54 49.49 55.24 57.20 56.72 56.02 56.83 57.25 57.35 58.44
51.76 52.27 52.44 52.52 52.53 52.51 52.63 52.56 52.75 52.95 53.41 53.86 52.13 49.30 43.74 52.79 48.66 51.90 53.41 50.39 52.80 54.23 54.33 52.80 51.60 50.73 52.29 48.69 48.30 50.15 46.44 48.27 50.22 54.24 53.26 51.99 50.23 55.00 56.73 56.10 55.73 56.82 57.87 57.14 58.08
52.65 52.33 52.29 52.17 52.48 52.62 52.57 52.52 52.33 51.79 52.77 53.75 51.88 44.36 47.27 43.36 49.80 52.37 53.68 53.62 50.64 51.29 50.60 49.17 48.47 47.26 48.46 47.99 43.27 46.21 46.62 48.66 49.53 53.06 51.16 50.65 50.82 53.93 55.17 55.26 55.97 57.03 57.51 57.42 58.12
52.46 52.69 52.56 52.54 52.42 52.34 51.36 51.28 48.39 47.10 48.22 44.85 44.50 44.77 45.60 48.72 50.47 49.01 52.01 51.46 51.06 49.08 44.99 47.64 43.77 43.08 46.39 48.56 49.79 49.83 49.47 48.96 51.05 53.31 51.49 51.10 51.46 53.26 55.29 55.91 56.25 57.10 57.32 57.58 59.72
52.11 52.42 52.46 52.58 52.29 52.17 51.31 45.96 45.16 46.43 39.94 46.07 46.01 45.66 47.13 48.18 43.21 46.90 50.44 46.08 46.96 43.10 46.56 45.44 41.87 46.89 48.60 49.10 48.15 48.28 47.78 48.50 51.38 53.15 52.60 50.50 50.29 54.12 55.63 56.06 56.81 56.47 56.97 58.29 60.30
52.19 51.77 51.86 52.36 51.94 51.06 48.82 47.09 51.21 50.53 40.25 42.50 45.24 44.65 45.89 47.60 43.30 44.21 47.62 46.08 44.99 43.75 44.36 43.50 44.91 47.20 46.95 47.22 46.36 46.70 46.47 47.52 47.81 50.99 52.07 49.75 47.96 51.09 54.83 56.37 56.77 56.97 57.40 57.60 59.95
52.24 52.05 51.74 51.31 48.59 50.11 47.22 50.48 51.63 51.10 35.27 37.71 41.88 45.42 47.57 47.55 43.19 49.90 50.63 45.99 44.78 42.66 44.38 44.36 47.95 46.36 45.25 44.61 46.95 43.96 48.47 47.33 46.48 45.75 42.66 49.62 43.28 50.07 53.14 53.90 55.27 56.19 56.69 58.12 60.82
52.10 51.61 51.36 50.13 48.56 46.19 48.39 52.00 51.88 48.74 23.97 39.18 43.26 50.90 47.62 44.64 45.33 46.63 51.40 47.17 41.06 43.53 44.84 42.71 44.30 45.14 44.80 44.94 47.03 45.33 47.78 47.36 46.95 45.55 45.58 45.92 43.90 48.18 52.74 51.24 53.83 55.63 56.58 58.75 61.00
51.79 51.30 50.64 50.72 48.61 49.66 51.69 51.39 49.06 33.16 23.94 35.52 42.11 40.91 41.17 43.05 43.31 45.74 46.53 49.19 46.76 42.34 45.57 44.87 48.13 46.93 46.86 47.62 47.52 48.39 46.38 47.42 47.63 46.04 40.20 44.95 44.71 45.70 49.91 52.14 54.45 55.89 55.96 59.42 61.36
51.00 50.08 50.13 51.70 45.51 50.97 51.24 46.66 32.83 26.56 37.06 34.00 36.34 40.03 39.61 38.81 39.52 41.84 40.80 41.82 39.38 35.23 37.41 43.30 43.97 46.60 47.62 45.53 47.43 46.78 44.96 39.98 38.58 39.43 38.77 47.46 45.49 46.68 52.62 53.74 53.95 54.31 56.69 60.49 61.53
49.95 48.09 48.46 51.39 51.11 50.72 47.68 38.80 25.37 31.57 32.60 38.89 38.00 38.23 35.47 38.51 37.99 37.49 37.69 37.15 43.72 41.13 39.26 37.73 37.21 43.90 46.57 45.46 44.36 44.91 45.67 40.88 35.22 38.12 41.60 47.46 43.01 47.52 53.24 55.13 55.85 55.99 56.65 60.65 61.47
47.80 52.20 50.87 51.60 52.24 50.67 42.94 29.89 30.31 33.04 36.02 34.96 36.32 33.77 34.22 36.67 36.75 36.52 35.27 32.78 38.10 42.91 38.04 38.44 39.82 46.77 46.71 47.41 47.62 44.73 43.44 48.66 45.37 46.74 42.14 46.22 48.46 50.01 52.53 53.28 54.00 55.80 56.15 59.36 61.15
48.43 49.14 47.46 52.11 52.32 49.19 39.29 30.28 33.97 38.11 38.42 37.71 31.19 34.38 31.60 34.26 34.19 34.79 33.99 36.96 35.61 41.85 45.08 41.61 37.23 46.33 45.87 47.42 48.03 47.79 49.02 43.13 44.60 38.04 36.97 42.70 43.98 43.90 49.89 51.96 53.58 55.39 57.30 60.01 61.47
48.23 44.42 48.40 52.11 48.77 40.53 32.91 33.85 36.56 40.15 40.08 35.68 34.21 33.07 33.90 33.00 35.09 34.45 33.61 36.63 37.11 38.50 42.74 43.25 40.96 43.54 46.02 43.70 43.50 44.77 44.96 46.32 46.82 44.84 39.93 39.06 42.04 50.27 52.15 53.09 54.71 57.38 58.99 60.83 61.05
46.05 40.24 48.62 52.28 40.48 39.85 34.07 34.86 38.50 38.64 40.27 38.05 38.57 36.40 34.72 35.50 34.67 34.12 33.23 36.15 40.12 40.04 36.73 42.06 41.88 39.26 42.82 47.29 48.64 47.45 45.93 46.59 41.96 40.90 44.15 43.82 42.51 52.36 54.81 56.00 57.32 57.72 59.61 61.15 61.72
42.55 43.08 49.86 48.81 35.06 34.57 35.11 36.22 38.05 37.28 37.11 36.94 36.28 38.04 39.14 35.81 32.13 34.88 36.08 40.09 40.82 38.90 36.92 38.78 40.09 36.34 40.15 44.77 46.65 45.19 46.65 47.74 48.06 48.21 43.18 40.52 42.34 51.14 55.19 55.68 57.66 58.96 59.83 60.48 61.20
43.27 38.33 44.79 45.38 41.82 33.36 31.51 34.55 34.61 39.59 38.08 38.70 38.05 39.59 37.79 36.08 38.41 34.57 35.56 38.74 40.70 40.66 40.49 41.06 37.21 39.29 38.76 41.46 44.75 42.82 44.66 46.77 46.56 42.89 43.88 43.37 43.47 48.94 53.36 55.19 57.06 58.98 59.80 60.38 61.00
43.81 39.49 39.74 35.86 36.57 34.22 35.29 34.09 34.42 33.78 38.71 40.12 37.08 37.17 34.75 32.51 35.09 34.98 37.05 38.44 39.62 41.18 40.92 41.08 35.77 40.83 42.34 42.93 42.72 44.37 44.10 44.84 44.48 45.54 43.09 44.73 44.57 47.13 53.03 54.53 56.52 58.02 59.78 59.89 60.71
40.76 37.80 40.66 36.63 36.37 35.69 35.23 35.50 34.50 35.36 34.39 35.17 35.27 36.28 35.94 32.56 34.70 34.29 36.84 38.40 35.83 36.48 39.41 41.68 36.46 39.26 39.20 42.54 42.90 41.58 44.26 45.39 45.26 45.82 45.86 45.90 45.52 50.07 52.65 53.77 53.06 57.32 59.12 59.40 60.52
44.91 45.45 39.54 36.40 35.34 33.29 35.19 34.61 33.74 34.99 37.60 38.60 37.82 36.34 36.11 36.92 39.57 40.93 41.15 42.00 39.97 37.47 36.78 38.12 37.72 37.29 36.19 41.93 42.17 39.10 43.71 44.95 45.67 46.98 46.66 43.61 48.07 51.33 51.40 52.59 53.54 56.34 58.54 59.46 61.04

GFSSW_sfc_wetblb_042.txt.gz
Wetbulb
54.02 54.03 54.18 54.14 54.69 54.29 54.35 54.41 54.44 54.59 54.94 55.08 55.20 55.34 55.49 55.59 55.22 54.27 51.89 57.34 60.92 64.27 62.41 63.21 64.82 63.32 64.76 62.60 61.83 59.05 51.12 49.46 51.53 52.52 54.33 58.46 56.66 59.35 60.82 59.10 60.52 60.85 60.66 62.38 63.92
53.20 53.38 53.44 53.64 54.07 54.25 54.02 54.14 54.08 54.34 54.36 54.76 54.92 54.77 55.30 55.80 51.99 51.41 58.38 65.11 65.60 65.74 56.21 56.08 56.78 59.92 58.86 58.61 59.12 54.89 50.97 51.22 55.32 56.28 56.11 57.59 57.62 58.21 58.43 58.76 58.91 59.98 62.05 63.27 63.53
53.03 52.99 53.17 53.61 53.52 54.29 54.15 54.02 53.97 54.23 54.21 54.30 54.45 54.67 55.42 54.82 50.59 51.28 62.16 65.38 65.95 64.07 55.40 56.65 57.68 58.88 55.25 57.44 57.45 56.37 52.31 54.92 56.32 58.18 58.51 57.43 57.49 59.36 57.73 56.44 58.71 58.53 60.23 62.00 63.05
53.05 52.97 53.08 53.65 53.93 53.84 53.78 53.89 53.98 54.22 54.30 54.29 54.35 54.50 55.28 52.95 43.62 55.62 62.07 61.16 61.20 57.45 54.38 53.07 52.92 53.30 54.82 53.18 55.94 54.05 57.15 57.12 58.02 59.04 58.64 57.40 58.99 58.06 58.74 58.80 61.61 62.18 62.52 61.99 62.44
52.64 52.75 52.80 53.07 53.37 53.63 54.19 53.75 53.76 53.94 54.06 54.03 54.17 54.21 52.48 47.26 48.64 57.69 63.59 62.59 57.27 55.94 52.90 51.62 50.34 51.10 49.96 54.30 55.39 53.59 54.53 57.01 58.77 59.07 58.66 59.23 57.96 58.23 58.56 61.24 62.10 62.60 62.67 62.44 62.61
53.37 53.27 52.92 52.80 53.07 53.51 54.20 54.32 54.16 54.20 53.60 53.91 54.01 53.86 49.50 41.36 53.44 55.25 56.70 56.07 55.78 55.83 55.46 56.14 53.81 54.16 52.29 52.30 53.41 55.88 55.33 55.71 57.08 57.36 57.97 56.48 56.96 57.85 59.35 61.75 61.21 61.90 61.92 62.22 62.40
53.68 53.79 53.36 53.48 53.59 53.51 54.02 53.95 53.97 54.23 53.72 54.19 54.24 53.16 47.55 45.64 53.34 54.28 54.07 53.85 55.78 55.29 53.49 55.95 57.95 54.41 54.71 51.67 55.19 55.38 53.36 55.32 55.92 56.34 56.32 57.80 54.93 55.32 59.24 60.27 59.40 60.62 61.80 62.04 62.58
53.64 53.35 53.10 53.00 53.44 54.02 54.39 54.09 53.87 53.98 54.25 54.86 54.77 52.32 44.25 53.32 54.83 53.54 53.89 52.41 53.21 53.54 53.31 54.53 55.55 53.16 53.30 54.55 53.17 51.66 52.55 49.59 54.43 56.05 56.76 56.11 50.68 56.67 59.10 58.65 58.61 59.96 60.75 61.52 62.15
53.37 53.24 52.79 52.77 52.71 53.15 53.82 53.67 54.11 54.33 54.87 54.82 52.34 50.16 45.26 56.39 51.24 53.37 52.78 49.57 50.79 51.70 52.99 54.17 53.39 51.08 51.56 49.27 47.75 49.74 46.84 48.04 50.42 55.27 54.72 54.97 52.17 56.84 59.10 58.56 58.43 59.40 59.32 60.00 60.68
53.08 52.97 53.10 53.06 52.81 53.12 52.83 52.97 53.82 54.02 54.97 55.08 53.85 47.10 50.33 48.11 50.37 52.20 53.96 53.00 49.47 49.08 48.55 49.73 49.18 46.34 47.36 46.10 41.59 44.38 45.36 47.71 48.26 52.79 54.05 52.87 52.67 56.11 58.04 57.91 58.14 58.53 59.05 59.25 60.17
52.48 52.81 53.06 53.04 53.30 52.81 51.57 52.64 48.84 47.76 51.24 48.34 48.64 47.64 48.84 51.21 51.67 48.75 50.60 49.18 50.71 49.69 43.64 47.33 44.11 42.15 44.60 46.91 47.52 48.13 47.82 46.66 50.61 52.96 51.82 51.96 52.36 54.71 57.29 57.60 57.33 58.26 58.15 59.11 60.37
52.25 52.23 52.73 52.81 52.65 52.60 51.25 48.85 48.52 49.18 41.81 47.80 47.15 46.71 48.12 48.66 44.02 46.70 50.04 44.56 44.59 43.11 46.21 43.94 41.99 46.70 47.71 47.44 46.51 46.50 46.18 46.61 50.15 51.56 51.37 51.68 51.93 55.47 56.89 57.01 57.80 57.97 58.36 59.04 60.37
52.38 52.46 52.56 52.07 52.00 51.68 51.24 49.69 53.21 51.61 41.98 43.68 46.33 45.56 46.36 48.04 44.15 44.65 47.42 45.06 41.81 41.17 43.20 41.39 43.96 47.75 46.95 45.54 45.02 45.88 45.16 46.46 46.44 49.33 51.33 50.99 49.87 52.98 55.70 57.40 58.24 58.74 59.39 60.21 59.95
52.26 52.11 52.09 51.53 48.85 51.34 48.69 52.39 52.76 52.65 36.02 39.56 42.52 45.70 47.23 46.83 43.50 49.10 50.04 45.99 42.41 39.22 41.60 42.51 46.64 44.72 45.49 44.69 45.61 43.32 47.73 47.00 46.91 46.15 43.64 50.42 42.73 50.95 53.66 54.95 56.91 57.84 58.60 58.83 59.29
52.02 52.18 51.81 50.79 50.47 49.02 50.65 53.30 52.96 48.83 24.31 42.36 43.41 51.63 48.79 46.01 47.21 46.93 52.32 47.35 40.63 40.53 40.87 38.69 42.27 43.73 42.50 45.24 47.35 44.86 48.05 47.48 46.97 46.04 46.55 46.38 44.38 47.68 52.79 52.13 54.44 56.68 58.03 59.00 59.68
51.89 51.97 51.54 52.25 52.04 52.83 53.30 52.58 49.39 33.42 24.36 36.84 42.41 42.77 42.49 44.17 44.00 47.56 47.55 49.63 47.67 42.57 42.57 40.91 44.80 44.15 45.66 46.67 47.16 49.08 46.69 46.52 47.08 46.41 40.94 45.94 44.91 45.06 48.70 51.65 53.33 55.88 56.80 58.07 59.87
51.48 51.05 50.09 52.81 48.33 53.78 52.88 47.52 32.79 26.89 38.60 34.80 37.10 40.32 39.82 39.56 41.11 43.20 42.07 41.65 39.93 36.27 37.50 40.99 40.75 43.17 45.04 43.76 47.09 46.28 45.73 39.26 37.97 38.73 38.53 46.95 44.73 46.81 51.75 54.01 54.87 55.43 57.18 58.82 60.90
50.10 49.47 51.76 53.73 54.29 53.79 49.03 38.75 26.70 34.97 35.33 40.37 39.01 39.23 36.18 38.78 38.81 39.63 40.02 37.76 41.59 40.11 37.41 34.52 34.64 40.39 44.08 43.36 43.49 44.48 45.42 40.15 33.41 35.95 39.68 45.61 41.82 46.29 53.45 55.71 56.76 57.19 58.60 59.91 61.18
48.52 54.03 52.58 53.77 54.43 52.74 43.77 33.26 33.06 36.05 38.80 37.69 38.58 35.51 36.16 38.73 38.50 39.04 37.65 37.68 40.22 42.07 34.72 33.73 36.16 45.15 43.64 45.57 46.02 44.35 41.84 47.48 43.01 44.08 40.77 44.08 47.79 51.39 53.91 54.98 56.05 56.84 58.59 60.07 62.96
49.02 51.04 51.50 54.42 54.83 50.02 40.41 34.82 36.89 40.69 40.72 39.66 32.55 34.47 32.66 35.60 34.44 35.60 36.88 40.51 40.23 42.25 43.04 37.51 32.35 42.39 45.44 44.45 45.79 45.63 47.97 41.41 43.88 35.79 35.84 41.81 44.66 46.49 52.29 54.01 55.49 56.38 57.89 59.80 63.20
50.00 46.99 51.89 55.10 53.88 45.69 36.53 36.84 39.38 42.01 42.30 38.30 36.10 35.04 35.78 34.72 36.79 34.92 35.41 39.78 41.88 40.99 42.71 40.24 36.86 37.74 43.76 41.46 41.09 43.76 42.57 44.78 46.24 43.96 38.80 38.07 43.01 55.06 53.91 54.63 55.41 57.10 57.69 59.95 62.75
49.18 42.70 52.13 53.63 42.54 42.73 37.76 39.31 41.13 40.86 42.93 40.39 40.45 38.20 35.85 37.35 35.39 35.81 36.54 38.41 43.63 42.40 37.49 41.17 37.30 35.01 38.83 45.66 46.11 46.94 44.48 45.35 41.78 40.84 43.85 43.60 44.27 55.80 55.73 55.33 57.12 57.20 57.91 61.61 63.14
46.30 46.49 53.26 51.34 37.70 37.35 39.45 39.95 41.25 39.64 40.58 40.85 38.62 40.08 40.93 36.60 33.30 35.93 37.50 42.25 43.74 41.25 39.22 40.35 37.09 32.55 36.17 41.54 45.79 43.94 45.96 47.26 47.59 48.87 43.70 41.04 44.32 55.32 54.38 55.37 56.67 57.90 57.13 61.83 62.24
47.12 41.25 45.85 47.36 45.11 38.72 36.93 37.39 37.57 42.67 41.39 41.46 39.81 41.25 36.64 37.04 39.14 35.54 36.75 39.28 42.22 42.78 43.31 42.25 36.99 34.40 31.73 36.07 39.20 39.46 44.66 46.38 46.62 42.99 43.87 45.26 46.88 50.45 52.99 54.95 56.72 58.64 61.05 61.74 62.07
47.68 42.82 44.55 39.30 39.37 39.61 38.73 38.06 36.52 36.89 41.30 41.58 38.54 38.99 37.39 33.97 35.46 35.69 38.52 38.38 40.13 41.51 42.22 40.56 32.59 35.83 37.41 38.16 38.44 38.74 40.32 45.04 44.96 47.21 43.98 46.88 48.22 50.60 54.37 56.58 59.00 61.47 61.94 61.05 61.35
44.22 41.53 43.54 40.13 41.26 39.15 37.87 36.82 36.43 37.98 38.00 37.18 36.70 38.08 38.09 35.17 36.05 33.84 37.78 38.44 37.27 41.25 39.72 40.02 33.39 36.78 34.81 38.36 36.93 35.61 40.17 43.96 46.39 46.71 48.26 48.98 49.16 53.58 55.39 55.77 58.66 59.88 60.27 60.55 60.61
47.64 47.27 42.21 39.65 39.44 37.12 36.81 35.94 36.47 38.61 39.94 40.34 39.56 37.75 36.82 39.12 42.14 42.23 42.82 42.57 41.68 39.20 38.99 37.65 36.30 36.02 32.15 37.53 36.10 33.35 41.37 44.61 47.30 48.97 49.20 46.89 51.34 54.47 52.97 53.73 56.74 59.73 60.72 60.94 61.44

GFSSW_sfc_wetblb_045.txt.gz
Wetbulb
53.38 53.56 53.55 53.65 53.88 54.06 54.52 54.46 54.48 54.73 54.90 55.20 55.22 55.30 55.42 55.78 55.56 51.36 47.84 54.17 58.05 63.15 63.88 57.94 59.28 61.78 60.66 58.38 59.40 59.63 46.54 43.35 46.32 48.60 51.15 55.88 54.25 58.47 59.24 57.49 58.53 59.76 58.54 60.62 62.95
53.13 53.36 53.43 53.69 53.72 53.96 54.09 54.17 54.51 54.54 54.69 54.96 55.06 55.05 55.08 55.48 50.81 48.29 55.96 62.97 63.68 66.81 55.75 53.00 54.76 60.33 57.22 57.65 58.23 55.13 47.20 47.55 51.51 52.82 52.48 55.04 55.95 56.85 56.92 57.18 57.12 59.04 61.13 62.06 61.09
52.90 53.07 53.09 53.28 53.55 53.83 54.01 54.07 54.18 54.47 54.63 54.77 54.78 54.79 55.18 54.39 47.81 48.96 62.40 63.12 62.85 65.29 55.01 54.55 54.94 54.75 52.97 55.02 56.39 54.79 49.52 52.12 52.77 54.50 55.61 55.30 56.27 58.59 56.83 54.76 56.53 57.04 58.89 59.70 59.68
53.82 53.88 53.55 53.47 53.47 53.37 53.73 53.88 54.17 54.29 54.28 54.13 54.31 54.41 55.07 50.74 38.85 51.25 62.22 63.61 65.26 61.02 54.02 51.93 49.92 48.02 47.94 50.21 55.02 50.94 54.39 54.62 54.44 55.83 55.12 54.58 57.40 56.69 57.11 56.50 60.02 60.07 60.92 60.56 59.18
53.54 53.78 53.67 53.85 53.98 53.91 53.90 53.70 53.98 54.26 54.35 54.16 53.99 54.15 50.31 43.63 43.47 52.47 64.38 62.52 55.26 53.54 51.92 50.03 47.38 45.97 43.98 49.38 52.32 50.44 51.88 54.64 56.71 56.37 55.92 57.35 56.04 56.03 56.11 59.06 60.07 60.13 60.22 59.10 59.12
53.57 53.26 53.12 53.12 53.41 53.88 54.48 54.52 54.27 53.91 53.92 54.18 54.22 53.97 47.16 37.83 50.32 52.14 52.33 55.07 55.56 52.63 51.39 50.40 47.79 49.10 46.07 47.01 47.52 51.86 53.25 53.33 53.82 54.03 55.33 54.58 54.94 55.72 56.88 58.67 58.28 58.27 58.17 57.99 58.67
53.89 53.72 53.29 53.40 53.29 53.99 54.11 54.03 53.84 54.21 53.87 54.41 54.89 52.15 44.92 42.25 50.48 50.97 49.94 48.56 50.63 52.21 51.61 53.89 53.11 50.40 49.66 46.44 50.38 50.28 47.79 50.05 51.60 53.49 52.55 54.86 51.51 52.61 56.45 57.74 57.30 57.13 57.78 57.74 58.42
52.96 53.31 53.32 53.21 53.50 53.91 54.17 53.94 53.53 53.58 53.81 54.60 55.36 50.12 41.05 50.45 51.41 49.87 50.23 49.61 52.00 51.49 50.49 51.50 51.44 47.91 46.65 49.25 49.54 47.73 47.34 43.05 49.07 51.56 53.94 53.66 47.33 53.62 56.62 56.32 55.95 56.69 57.35 57.58 57.64
52.06 52.75 53.32 53.00 53.18 53.60 53.74 53.41 54.07 54.22 54.74 54.86 50.34 47.16 40.95 54.59 49.18 51.43 51.00 48.62 49.72 50.44 50.21 51.47 48.98 45.46 46.50 42.40 41.24 44.13 40.10 42.19 45.96 51.81 52.05 51.47 48.41 53.59 56.02 55.77 55.18 56.08 56.49 57.18 56.64
52.61 52.91 52.69 52.64 52.62 52.93 52.71 53.06 53.63 54.05 53.32 53.51 51.76 44.38 47.41 46.48 51.24 52.02 52.64 50.82 48.87 48.17 46.33 45.65 43.73 41.53 40.66 39.50 34.46 39.05 40.80 43.33 43.44 48.61 50.55 49.15 49.06 52.26 54.22 54.51 54.64 55.39 56.20 56.82 55.95
52.42 52.73 52.64 52.77 52.95 52.36 50.31 46.60 44.42 43.85 47.48 43.27 44.58 45.79 48.42 52.25 53.24 48.74 49.95 48.89 47.37 46.90 38.52 41.52 37.67 36.45 39.44 42.06 43.42 44.23 43.73 43.15 46.25 49.53 48.31 47.39 47.74 49.85 52.73 52.43 52.73 53.94 54.07 54.46 54.90
51.98 52.16 52.81 52.79 52.77 52.44 49.02 44.55 47.01 45.06 38.22 45.38 45.14 45.10 47.42 48.38 42.94 45.31 48.31 42.48 41.71 37.66 42.79 40.12 35.10 41.15 44.34 43.86 42.80 42.47 40.57 41.05 45.95 49.06 47.58 47.16 47.04 50.55 52.16 52.25 53.36 53.95 53.59 54.65 54.43
52.03 52.36 52.75 52.68 52.24 49.71 47.12 47.50 50.86 48.60 37.53 41.23 44.79 43.83 44.32 46.13 42.22 42.80 45.76 42.98 39.50 36.80 37.75 37.51 39.97 44.19 43.48 42.52 41.60 41.32 40.24 40.45 40.88 45.87 47.30 45.54 43.06 45.87 50.11 52.54 53.96 54.88 54.84 54.91 54.90
51.81 52.06 52.14 52.01 47.93 48.05 46.02 50.21 50.23 49.54 30.70 36.02 41.99 44.09 44.60 44.13 40.55 46.97 47.58 43.71 40.12 36.12 37.34 36.40 41.76 42.92 41.28 40.49 42.85 38.02 44.57 44.14 43.77 41.87 37.31 44.15 35.72 43.65 47.51 49.61 51.91 53.46 53.03 53.88 55.06
51.41 51.93 51.85 51.09 46.08 45.61 48.30 49.70 48.71 44.44 22.27 39.99 41.19 49.93 47.63 43.40 45.36 46.51 48.49 45.11 38.93 38.74 37.71 34.86 37.47 38.15 39.28 40.76 44.00 40.85 45.51 43.71 43.46 41.18 39.86 40.86 36.37 42.63 47.16 47.09 49.15 51.78 53.70 54.35 55.06
51.26 51.45 51.23 49.67 47.25 48.98 49.95 49.50 45.83 31.38 23.25 35.32 41.27 39.83 39.82 42.39 43.19 46.06 46.74 49.14 46.71 39.41 39.25 38.04 41.93 39.88 38.87 41.72 44.58 45.12 43.46 42.72 41.92 39.59 33.36 39.11 38.86 40.09 43.04 46.11 48.03 51.16 52.43 53.35 52.93
51.05 50.90 48.76 49.89 44.81 49.73 48.99 43.94 28.46 24.98 37.91 34.35 35.87 39.47 38.38 37.94 39.01 41.30 41.18 40.04 36.73 33.36 33.17 38.27 38.85 41.85 42.40 37.71 40.77 41.16 37.48 30.48 29.85 31.18 31.20 40.46 38.96 41.99 45.63 48.94 50.46 50.87 52.32 52.73 53.87
50.08 49.34 49.82 50.58 51.41 49.46 45.60 35.79 22.70 33.32 33.47 38.70 37.98 38.22 35.51 37.65 36.99 38.89 37.64 34.77 39.95 39.12 33.84 31.62 30.55 40.50 44.35 38.86 35.79 36.75 37.61 31.78 25.42 28.60 32.54 40.81 36.88 40.79 48.59 51.30 52.06 52.98 52.43 53.01 53.22
48.66 48.99 49.03 50.49 51.69 48.58 39.44 28.31 29.81 34.24 37.13 36.01 36.99 32.85 33.33 36.91 35.68 36.08 35.57 36.04 38.55 40.05 32.84 31.13 31.52 41.61 41.45 42.09 40.18 36.35 33.76 40.59 35.10 37.76 33.44 36.63 41.36 45.53 47.85 48.45 50.38 51.24 52.45 56.32 57.81
45.01 45.41 47.56 51.63 51.19 45.86 36.77 32.24 34.71 39.89 39.09 38.17 31.18 34.67 29.96 31.79 33.75 34.30 33.70 38.52 38.28 41.35 39.66 36.38 28.83 38.08 39.68 42.65 43.90 40.79 41.04 34.12 35.86 28.15 27.73 35.37 38.04 38.82 44.43 47.31 49.47 50.96 51.82 56.80 58.96
45.03 43.28 48.41 51.54 50.19 42.42 33.17 34.33 37.45 40.92 40.85 37.40 34.84 33.52 33.70 31.80 33.96 32.83 33.77 37.45 41.05 40.49 40.14 36.59 32.85 33.41 38.69 36.31 36.61 37.47 35.42 36.26 36.43 36.29 31.26 30.81 35.31 45.13 48.83 50.16 49.04 51.34 52.57 57.78 58.32
43.93 38.58 48.47 49.74 37.79 39.73 34.92 36.99 40.42 39.82 41.73 40.18 39.54 36.97 34.70 35.35 33.87 33.53 33.69 37.20 40.56 39.92 34.79 38.17 33.85 29.51 32.94 40.56 43.07 41.19 38.12 37.18 32.64 32.26 37.09 35.29 36.78 46.84 49.47 49.64 51.50 51.92 53.00 58.33 59.06
40.39 43.21 50.16 47.86 33.39 32.87 37.46 38.17 39.07 38.87 38.27 38.26 36.46 37.95 37.69 33.73 31.25 35.31 36.63 40.43 41.13 39.33 37.08 36.99 31.55 26.67 30.13 35.51 40.54 38.51 41.72 40.86 39.39 39.22 35.61 34.26 37.39 47.98 50.55 50.11 51.64 50.56 54.25 58.67 59.08
42.69 37.31 42.09 43.21 41.51 38.25 35.83 35.26 34.82 41.06 40.00 39.65 37.64 38.77 36.27 34.48 36.34 33.62 35.30 39.15 41.09 40.02 44.12 40.72 32.25 30.80 25.80 30.88 36.33 34.17 36.17 39.39 37.04 35.56 36.85 38.61 39.88 44.31 49.23 49.74 51.31 51.02 57.79 58.55 59.24
43.85 38.98 40.34 33.57 35.33 37.11 38.42 36.67 34.09 34.61 39.38 38.97 36.29 36.86 34.58 30.32 32.39 33.02 35.79 37.29 40.11 41.54 40.46 38.99 31.11 32.57 33.45 35.50 36.90 36.03 35.24 36.96 34.75 36.12 35.77 40.40 41.99 44.74 48.57 50.42 53.31 56.52 57.99 57.97 58.61
41.39 38.46 40.91 37.15 38.54 38.03 37.28 34.93 33.99 35.42 35.38 34.39 34.38 36.46 35.73 31.78 33.41 32.01 34.92 34.88 34.18 38.75 38.20 39.21 30.80 34.03 32.46 36.72 37.54 35.03 36.65 37.20 37.28 38.00 39.40 42.50 42.38 51.16 51.68 54.56 56.59 57.24 57.85 57.89 58.46
44.55 45.67 41.64 37.98 37.35 35.19 35.90 37.25 36.38 37.79 37.94 38.41 36.95 36.28 35.03 37.03 39.90 39.96 39.70 39.15 38.01 35.22 34.64 35.57 33.87 33.57 29.76 37.09 34.87 29.83 34.46 36.50 38.01 40.93 41.84 40.39 46.99 50.14 50.16 52.28 53.80 56.82 57.54 57.94 58.77

GFSSW_sfc_wetblb_048.txt.gz
Wetbulb
53.31 53.48 53.50 53.64 53.74 53.73 54.00 54.29 54.60 54.73 55.03 55.16 55.41 55.37 55.53 55.50 55.62 50.84 45.81 51.91 54.97 60.62 64.38 59.20 61.19 58.86 57.45 56.07 57.19 56.02 45.43 41.65 45.10 47.35 49.30 53.46 51.96 56.50 58.53 56.65 57.73 58.87 57.73 59.38 61.52
53.49 53.37 53.53 53.50 53.70 53.77 53.88 54.25 54.46 54.57 54.64 54.82 55.01 54.96 55.03 55.48 50.41 47.35 54.15 60.20 62.22 64.64 55.80 52.33 51.89 56.43 54.40 54.27 54.51 51.06 46.29 46.78 50.62 51.32 50.16 52.66 53.00 54.63 55.88 55.68 55.95 57.44 60.39 60.71 61.94
53.23 53.26 53.36 53.77 54.21 54.10 54.01 54.05 54.20 54.42 54.70 54.66 54.68 54.55 54.65 54.12 45.71 47.24 61.43 61.42 61.73 64.40 57.49 54.62 53.02 52.72 52.43 54.66 53.46 52.04 48.97 53.10 53.81 53.85 53.92 53.02 53.62 55.70 55.31 53.78 55.52 55.86 58.28 59.27 58.83
53.56 53.71 53.54 53.49 53.55 53.65 53.91 54.09 54.36 54.56 54.40 54.58 54.53 54.35 54.65 49.69 33.32 49.27 62.63 63.54 64.69 60.32 57.93 51.59 49.21 46.61 45.10 48.54 54.52 49.23 54.48 55.31 56.05 56.46 54.54 52.63 54.68 53.51 54.61 55.44 58.92 59.50 59.79 59.30 58.00
53.75 53.93 53.70 53.75 53.79 53.64 53.50 53.70 53.75 54.05 54.13 54.33 54.44 54.03 49.83 42.40 42.42 48.57 59.28 56.70 52.86 60.52 52.88 50.03 46.85 45.22 41.79 44.74 49.45 49.57 51.51 54.30 55.37 55.69 55.44 55.36 53.54 53.41 54.49 58.06 59.59 58.96 58.78 58.16 57.77
53.02 53.07 53.27 53.58 53.68 53.86 54.23 54.22 53.96 53.57 53.35 53.39 54.21 53.73 46.13 36.43 47.30 49.77 50.01 49.76 49.39 50.25 51.89 49.51 46.91 47.63 44.96 43.53 44.23 47.85 50.30 51.12 52.25 51.91 53.80 53.56 54.04 55.15 56.23 58.32 57.72 57.88 56.33 56.15 56.60
52.42 53.05 52.76 52.95 53.24 53.88 54.22 54.01 53.73 53.44 53.49 53.74 54.06 51.71 44.72 40.81 49.65 48.37 46.59 45.94 48.35 48.51 47.17 50.87 50.84 48.33 46.23 42.70 46.84 47.07 43.92 47.22 48.48 49.12 49.18 52.49 49.53 50.95 55.54 56.59 55.73 56.15 56.14 56.23 56.35
52.69 52.68 53.13 52.74 52.95 53.06 53.71 53.85 53.66 53.44 54.30 54.93 54.45 50.69 40.85 49.82 50.03 48.36 48.58 47.88 49.86 49.71 49.48 49.63 49.04 47.23 44.26 46.02 46.28 43.97 43.70 40.60 47.20 49.02 49.93 49.98 44.35 52.18 54.71 54.28 54.09 54.82 55.88 56.65 57.25
52.34 52.51 52.94 52.61 52.78 52.93 53.44 53.30 53.48 54.75 54.82 54.59 49.96 46.31 39.92 52.81 48.79 50.80 49.54 46.87 48.98 49.53 48.75 50.77 46.64 43.61 44.12 39.91 37.33 40.00 38.50 40.49 44.11 49.72 49.29 48.79 45.78 51.54 54.69 53.52 52.25 53.59 54.93 55.92 56.70
52.59 52.43 52.49 52.22 52.92 53.01 53.14 52.68 53.06 53.77 53.14 53.46 51.21 44.44 45.83 43.77 50.34 52.43 50.93 49.96 47.36 46.61 45.56 43.86 40.72 38.99 37.00 36.51 33.00 35.92 37.72 41.10 41.50 46.46 48.23 47.07 46.66 50.37 52.48 52.78 52.54 53.47 54.16 54.63 55.62
51.84 52.26 52.37 52.70 53.18 52.99 50.66 45.30 42.70 40.27 43.69 40.16 41.57 42.46 45.08 48.35 50.62 49.49 50.26 48.20 47.61 43.94 36.76 39.79 34.19 33.89 37.43 40.38 41.55 42.28 41.25 40.10 43.70 47.54 46.40 45.45 46.01 48.92 51.02 50.13 50.48 51.99 52.54 53.05 54.29
51.59 51.61 52.20 52.60 52.99 52.62 47.97 42.82 44.11 43.16 36.33 44.62 44.16 44.19 46.43 46.87 41.48 44.76 48.45 41.19 40.25 35.61 40.14 36.41 32.81 38.89 41.43 41.82 40.40 39.73 38.05 37.78 41.73 45.32 45.43 45.20 44.84 48.39 50.25 50.38 50.89 51.45 51.69 51.64 52.17
51.75 51.96 52.12 52.31 51.96 47.96 45.29 45.60 47.86 44.98 35.12 40.43 45.19 45.19 44.85 45.01 40.89 41.79 45.00 42.19 37.83 34.49 34.97 35.46 38.22 42.98 39.82 39.14 38.65 38.50 37.19 38.02 38.50 42.50 43.59 41.89 39.94 42.80 47.20 48.36 49.87 50.89 52.59 52.66 52.53
51.40 51.61 51.75 51.45 46.05 45.13 44.10 48.00 46.83 44.83 31.43 36.08 40.82 43.97 45.85 43.64 39.45 46.37 46.48 42.58 38.23 34.40 35.29 33.96 38.25 38.31 39.43 36.65 39.39 34.89 41.86 41.22 40.45 38.92 34.01 42.21 32.79 40.86 44.72 46.18 48.01 49.12 49.97 51.15 53.11
51.28 51.42 51.46 50.77 43.94 42.58 46.91 46.40 46.52 41.84 17.78 39.00 41.22 48.86 46.20 41.53 43.45 45.56 50.27 43.26 37.11 36.52 35.54 33.17 34.82 35.44 35.95 38.27 41.49 37.29 42.83 41.56 41.21 38.00 37.04 38.13 33.32 39.80 42.47 43.44 45.76 48.05 50.23 51.89 53.02
51.07 51.21 50.92 46.84 44.13 46.09 48.01 46.23 42.64 28.25 18.35 34.75 40.61 39.65 39.60 41.70 42.43 45.08 45.65 47.81 46.16 40.31 38.02 36.51 40.03 38.01 36.69 39.41 39.66 40.85 39.94 39.58 39.37 35.60 30.03 35.78 34.85 37.28 40.30 42.86 44.95 47.72 50.03 51.77 52.04
50.97 50.45 49.04 48.34 41.84 46.62 45.65 40.67 26.71 20.90 36.89 32.93 34.98 38.62 38.27 36.72 38.73 39.82 39.48 38.45 35.63 32.41 31.07 36.80 36.58 39.28 40.73 35.90 38.30 36.21 30.74 25.96 24.33 26.37 28.62 37.93 35.14 38.45 42.34 45.10 46.12 46.81 48.85 50.63 51.06
49.79 49.68 47.04 48.21 46.42 46.24 42.34 33.06 21.02 32.24 32.89 38.45 36.87 37.18 34.09 36.59 36.94 37.63 36.30 34.21 40.22 37.39 33.52 31.17 28.28 39.39 43.26 38.38 32.95 32.78 31.75 26.51 21.53 23.50 29.49 37.98 32.57 37.98 45.50 48.08 48.54 49.35 50.52 51.29 48.10
48.62 43.12 44.79 47.17 48.25 44.85 37.33 24.74 27.10 32.87 36.88 35.02 36.05 32.18 32.13 35.30 35.93 35.89 34.43 34.22 38.15 38.58 30.33 29.74 30.52 39.71 40.13 40.53 38.46 33.93 30.46 34.45 29.73 33.62 28.33 33.76 37.98 43.33 45.85 46.05 47.24 47.54 48.74 48.93 52.26
42.86 41.50 43.45 48.44 47.83 42.87 33.52 31.50 34.50 39.03 38.75 37.95 30.10 34.08 29.86 31.41 32.26 32.39 32.64 37.81 36.28 40.29 38.15 34.50 27.40 37.07 38.85 40.80 39.81 37.24 38.79 28.71 28.48 23.56 23.70 30.77 34.05 36.36 40.84 43.16 45.73 46.04 47.06 52.69 56.34
41.05 39.38 45.66 48.32 46.54 37.31 25.30 30.66 35.73 40.54 40.32 36.05 33.56 32.55 32.87 31.59 32.66 31.58 33.32 37.64 39.01 38.34 39.10 34.94 31.28 32.19 36.68 34.74 33.28 34.48 32.39 32.73 31.44 30.23 27.91 25.97 31.77 40.70 42.27 43.99 45.28 48.26 49.12 55.70 57.00
38.99 35.21 45.91 47.31 35.13 35.98 30.92 36.50 40.15 38.67 40.98 39.07 38.26 35.67 34.02 33.87 31.90 33.18 32.47 36.10 41.16 40.22 35.00 35.42 32.10 28.24 31.01 37.46 39.62 38.22 34.99 34.06 26.81 27.16 31.06 33.04 33.35 45.04 43.86 44.98 47.31 48.08 55.56 56.90 58.19
36.57 38.05 46.06 44.21 32.60 28.94 35.08 37.03 38.81 37.20 37.90 37.53 35.72 37.47 36.96 33.43 30.28 34.00 35.14 40.19 41.01 38.93 36.27 37.11 29.34 24.31 25.52 32.09 38.70 35.97 39.02 37.04 34.82 32.06 30.61 28.44 32.98 44.68 45.22 46.71 48.03 48.05 55.54 56.80 57.44
38.19 33.81 36.93 38.10 37.23 31.53 33.15 35.06 34.61 40.02 38.76 37.81 35.89 37.29 34.67 32.40 33.87 31.65 33.06 38.82 40.97 40.44 43.39 40.60 32.74 28.06 21.84 27.98 34.40 31.65 35.61 37.06 34.42 30.15 31.37 33.57 35.64 41.63 44.19 45.18 47.07 51.05 55.86 56.82 57.70
38.37 32.67 35.83 28.46 32.55 34.53 35.42 35.14 33.98 34.58 37.60 37.09 34.08 34.88 32.80 28.89 30.85 30.74 34.44 36.14 39.09 41.63 39.54 36.76 30.38 33.28 32.75 33.97 34.55 33.56 33.96 35.90 34.26 34.75 31.31 35.66 35.18 39.60 42.55 45.34 47.26 51.73 56.28 56.84 57.15
35.04 35.56 38.41 34.70 35.98 35.63 34.71 35.44 35.20 36.01 36.86 33.73 32.24 34.89 34.07 30.72 32.78 31.20 33.84 34.01 33.65 36.94 35.49 37.75 32.10 35.12 31.40 34.75 34.96 33.30 36.41 36.80 36.89 36.72 36.36 36.92 36.44 44.50 46.39 51.91 52.82 54.91 56.56 56.50 57.39
39.24 40.88 40.03 36.88 33.75 33.78 34.21 35.83 37.45 38.04 38.35 38.19 36.55 34.51 33.54 35.72 38.92 39.41 39.41 37.70 36.22 33.26 33.36 33.36 31.26 31.53 27.70 34.59 34.74 30.28 35.21 36.63 36.79 39.30 38.40 33.82 39.60 45.27 50.37 52.26 51.86 53.65 57.02 57.11 57.84